KB0UOA Weather Reports


Display with metric or nautical units.
time (UTC)temp
F
wind
direction
speed
MPH
gust
MPH
rain 1hr
in
rain 24hr
in
rain mn
in
humidity
%
barometer
mb
20260905165004 96 160 2.0 7.0 0.00 0.00 0.00 45 1017.4
20260905164904 96 165 3.0 7.0 0.00 0.00 0.00 45 1017.4
20260905164805 96 173 3.0 8.0 0.00 0.00 0.00 45 1017.4
20260905164705 96 169 3.0 8.0 0.00 0.00 0.00 46 1017.4
20260905164605 96 172 3.0 8.0 0.00 0.00 0.00 46 1017.3
20260905164505 96 176 3.0 8.0 0.00 0.00 0.00 47 1017.3
20260905164405 96 181 3.0 9.0 0.00 0.00 0.00 48 1017.4
20260905164305 95 183 3.0 9.0 0.00 0.00 0.00 48 1017.4
20260905164104 95 187 4.0 10.0 0.00 0.00 0.00 47 1017.4
20260905164004 95 185 4.0 10.0 0.00 0.00 0.00 48 1017.4
20260905163904 95 187 4.0 10.0 0.00 0.00 0.00 47 1017.4
20260905163804 95 189 4.0 11.0 0.00 0.00 0.00 47 1017.4
20260905163704 95 191 4.0 11.0 0.00 0.00 0.00 48 1017.3
20260905163604 95 191 4.0 11.0 0.00 0.00 0.00 48 1017.3
20260905163504 95 191 3.0 11.0 0.00 0.00 0.00 47 1017.3
20260905163304 95 186 3.0 11.0 0.00 0.00 0.00 47 1017.3
20260905163204 95 187 3.0 11.0 0.00 0.00 0.00 47 1017.3
20260905163104 95 191 3.0 11.0 0.00 0.00 0.00 47 1017.3
20260905163005 95 197 3.0 11.0 0.00 0.00 0.00 47 1017.3
20260905162905 95 195 3.0 11.0 0.00 0.00 0.00 46 1017.3
20260905162805 95 190 2.0 8.0 0.00 0.00 0.00 48 1017.3
20260905162605 95 184 2.0 8.0 0.00 0.00 0.00 48 1017.2
20260905162505 94 185 3.0 8.0 0.00 0.00 0.00 48 1017.2
20260905162306 94 173 3.0 8.0 0.00 0.00 0.00 48 1017.2
20260905162204 94 163 3.0 8.0 0.00 0.00 0.00 48 1017.1
20260905162104 94 154 3.0 8.0 0.00 0.00 0.00 48 1017.1
20260905162004 94 148 3.0 8.0 0.00 0.00 0.00 48 1017.1
20260905161904 94 147 3.0 8.0 0.00 0.00 0.00 48 1017.1
20260905161804 94 149 3.0 8.0 0.00 0.00 0.00 48 1017.1
20260905161704 94 154 3.0 8.0 0.00 0.00 0.00 48 1017.1
20260905161604 94 153 3.0 8.0 0.00 0.00 0.00 48 1017.1
20260905161504 94 154 3.0 8.0 0.00 0.00 0.00 48 1017.1
20260905161404 94 163 3.0 8.0 0.00 0.00 0.00 48 1017.1
20260905161305 94 170 3.0 8.0 0.00 0.00 0.00 48 1017.2
20260905161205 94 177 2.0 6.0 0.00 0.00 0.00 50 1017.2
20260905161105 94 179 2.0 6.0 0.00 0.00 0.00 50 1017.2
20260905161004 94 181 2.0 6.0 0.00 0.00 0.00 50 1017.2
20260905160904 94 181 2.0 6.0 0.00 0.00 0.00 49 1017.2
20260905160804 94 175 2.0 6.0 0.00 0.00 0.00 50 1017.3
20260905160705 93 170 2.0 6.0 0.00 0.00 0.00 50 1017.2
20260905160605 93 165 2.0 6.0 0.00 0.00 0.00 49 1017.2
20260905160504 93 164 2.0 6.0 0.00 0.00 0.00 50 1017.2
20260905160405 93 163 2.0 6.0 0.00 0.00 0.00 51 1017.2
20260905160204 93 172 3.0 8.0 0.00 0.00 0.00 50 1017.2
20260905160004 93 171 3.0 8.0 0.00 0.00 0.00 51 1017.2
20260905155904 93 177 3.0 8.0 0.00 0.00 0.00 52 1017.2
20260905155804 92 181 3.0 8.0 0.00 0.00 0.00 51 1017.1
20260905155604 92 182 3.0 9.0 0.00 0.00 0.00 52 1017.2
20260905155404 92 182 3.0 9.0 0.00 0.00 0.00 51 1017.1
20260905155306 92 178 2.0 9.0 0.00 0.00 0.00 51 1017.1
20260905155204 92 172 2.0 9.0 0.00 0.00 0.00 51 1017.1
20260905155105 92 173 2.0 9.0 0.00 0.00 0.00 51 1017.1
20260905155005 92 169 2.0 9.0 0.00 0.00 0.00 51 1017.1
20260905154804 92 159 2.0 9.0 0.00 0.00 0.00 51 1017.1
20260905154704 92 163 2.0 9.0 0.00 0.00 0.00 51 1017.1
20260905154604 92 160 2.0 5.0 0.00 0.00 0.00 52 1017.2
20260905154504 92 164 2.0 7.0 0.00 0.00 0.00 52 1017.2
20260905154404 92 171 3.0 8.0 0.00 0.00 0.00 52 1017.1
20260905154204 91 182 3.0 8.0 0.00 0.00 0.00 53 1017.2
20260905154004 91 185 3.0 8.0 0.00 0.00 0.00 53 1017.1
20260905153904 91 185 3.0 8.0 0.00 0.00 0.00 53 1017.1
20260905153804 91 185 3.0 8.0 0.00 0.00 0.00 53 1017.2
20260905153704 91 185 3.0 8.0 0.00 0.00 0.00 53 1017.2
20260905153604 90 184 3.0 8.0 0.00 0.00 0.00 53 1017.1
20260905153404 91 178 3.0 7.0 0.00 0.00 0.00 53 1017.2
20260905153304 91 170 3.0 6.0 0.00 0.00 0.00 53 1017.2
20260905153204 91 171 3.0 6.0 0.00 0.00 0.00 53 1017.1
20260905153005 90 173 3.0 6.0 0.00 0.00 0.00 54 1017.2
20260905152905 90 176 3.0 6.0 0.00 0.00 0.00 55 1017.2
20260905152805 90 183 3.0 9.0 0.00 0.00 0.00 55 1017.1
20260905152604 90 186 4.0 9.0 0.00 0.00 0.00 55 1017.2
20260905152504 90 189 4.0 9.0 0.00 0.00 0.00 55 1017.2
20260905152306 89 191 4.0 9.0 0.00 0.00 0.00 55 1017.1
20260905152204 89 192 4.0 9.0 0.00 0.00 0.00 55 1017.2
20260905152104 89 193 4.0 9.0 0.00 0.00 0.00 55 1017.2
20260905152004 89 192 4.0 9.0 0.00 0.00 0.00 55 1017.2
20260905151904 90 191 4.0 9.0 0.00 0.00 0.00 54 1017.2
20260905151804 89 188 4.0 9.0 0.00 0.00 0.00 54 1017.2
20260905151704 90 187 4.0 9.0 0.00 0.00 0.00 55 1017.1
20260905151604 90 185 3.0 7.0 0.00 0.00 0.00 55 1017.1
20260905151504 90 178 3.0 7.0 0.00 0.00 0.00 55 1017.1
20260905151404 90 175 3.0 7.0 0.00 0.00 0.00 55 1017.1
20260905151304 90 172 3.0 7.0 0.00 0.00 0.00 55 1017.1
20260905151204 90 169 3.0 7.0 0.00 0.00 0.00 55 1017.1
20260905151104 90 165 3.0 7.0 0.00 0.00 0.00 55 1017.1
20260905151004 90 169 2.0 7.0 0.00 0.00 0.00 54 1017.1
20260905150904 90 168 2.0 7.0 0.00 0.00 0.00 55 1017.1
20260905150804 90 167 2.0 6.0 0.00 0.00 0.00 56 1017.1
20260905150504 89 170 2.0 6.0 0.00 0.00 0.00 57 1017.0
20260905150404 89 169 2.0 6.0 0.00 0.00 0.00 57 1017.1
20260905150304 89 174 2.0 6.0 0.00 0.00 0.00 58 1017.1
20260905150204 89 175 2.0 6.0 0.00 0.00 0.00 57 1017.0
20260905150104 89 175 2.0 6.0 0.00 0.00 0.00 57 1017.1
20260905145804 88 164 2.0 6.0 0.00 0.00 0.00 58 1016.9
20260905145704 88 160 2.0 6.0 0.00 0.00 0.00 58 1016.9
20260905145604 88 165 2.0 6.0 0.00 0.00 0.00 58 1016.9
20260905145504 88 167 2.0 7.0 0.00 0.00 0.00 58 1016.9
20260905145404 88 169 2.0 7.0 0.00 0.00 0.00 58 1016.9
20260905145306 88 165 2.0 7.0 0.00 0.00 0.00 58 1016.9
20260905145204 88 167 3.0 7.0 0.00 0.00 0.00 58 1017.0
20260905145104 88 169 3.0 7.0 0.00 0.00 0.00 58 1016.9
20260905145004 87 169 3.0 7.0 0.00 0.00 0.00 59 1016.9
20260905144904 87 172 3.0 7.0 0.00 0.00 0.00 59 1016.9
20260905144704 87 177 3.0 7.0 0.00 0.00 0.00 59 1016.9
20260905144604 87 175 3.0 7.0 0.00 0.00 0.00 60 1017.0
20260905144504 87 171 3.0 7.0 0.00 0.00 0.00 60 1016.9
20260905144404 87 170 3.0 7.0 0.00 0.00 0.00 60 1016.9
20260905144204 87 174 2.0 8.0 0.00 0.00 0.00 60 1016.9
20260905144104 87 169 2.0 8.0 0.00 0.00 0.00 60 1016.8
20260905144004 87 171 2.0 8.0 0.00 0.00 0.00 60 1016.8
20260905143905 86 172 2.0 8.0 0.00 0.00 0.00 60 1016.8
20260905143805 86 169 3.0 8.0 0.00 0.00 0.00 60 1016.8
20260905143704 86 173 3.0 8.0 0.00 0.00 0.00 60 1016.8
20260905143604 86 173 3.0 8.0 0.00 0.00 0.00 60 1016.8
20260905143504 86 176 3.0 8.0 0.00 0.00 0.00 61 1016.8
20260905143404 86 177 3.0 8.0 0.00 0.00 0.00 61 1016.8
20260905143304 86 176 3.0 8.0 0.00 0.00 0.00 61 1016.8
20260905143204 86 173 3.0 8.0 0.00 0.00 0.00 61 1016.8
20260905143104 86 174 3.0 8.0 0.00 0.00 0.00 61 1016.9
20260905143004 86 171 3.0 8.0 0.00 0.00 0.00 61 1016.8
20260905142905 86 175 3.0 12.0 0.00 0.00 0.00 61 1016.8
20260905142805 86 176 3.0 12.0 0.00 0.00 0.00 61 1016.8
20260905142705 86 173 3.0 12.0 0.00 0.00 0.00 61 1016.8
20260905142605 86 172 2.0 12.0 0.00 0.00 0.00 61 1016.9
20260905142505 86 170 2.0 12.0 0.00 0.00 0.00 62 1016.9
20260905142404 85 165 2.0 12.0 0.00 0.00 0.00 63 1016.8
20260905142306 85 167 2.0 12.0 0.00 0.00 0.00 62 1016.8
20260905142204 85 165 3.0 12.0 0.00 0.00 0.00 63 1016.9
20260905142104 85 163 2.0 12.0 0.00 0.00 0.00 62 1016.9
20260905142004 85 164 2.0 12.0 0.00 0.00 0.00 62 1016.9
20260905141904 85 153 2.0 7.0 0.00 0.00 0.00 63 1016.9
20260905141804 85 150 2.0 6.0 0.00 0.00 0.00 62 1016.9
20260905141704 85 150 2.0 6.0 0.00 0.00 0.00 62 1016.9
20260905141604 85 156 2.0 7.0 0.00 0.00 0.00 62 1016.9
20260905141504 85 147 2.0 7.0 0.00 0.00 0.00 63 1016.9
20260905141404 85 149 2.0 7.0 0.00 0.00 0.00 63 1016.9
20260905141304 85 146 2.0 7.0 0.00 0.00 0.00 63 1016.9
20260905141204 85 148 1.0 7.0 0.00 0.00 0.00 63 1016.9
20260905141104 84 148 1.0 7.0 0.00 0.00 0.00 64 1016.9
20260905140804 84 146 2.0 7.0 0.00 0.00 0.00 64 1016.8
20260905140704 84 149 2.0 7.0 0.00 0.00 0.00 64 1016.8
20260905140604 84 140 1.0 5.0 0.00 0.00 0.00 64 1016.8
20260905140505 84 141 1.0 5.0 0.00 0.00 0.00 65 1016.8
20260905140404 84 142 2.0 5.0 0.00 0.00 0.00 65 1016.8
20260905140304 84 145 2.0 5.0 0.00 0.00 0.00 65 1016.8
20260905140204 84 146 2.0 6.0 0.00 0.00 0.00 65 1016.8
20260905140104 83 150 2.0 6.0 0.00 0.00 0.00 66 1016.7
20260905140004 83 155 2.0 7.0 0.00 0.00 0.00 66 1016.8
20260905135904 83 157 2.0 7.0 0.00 0.00 0.00 66 1016.8
20260905135804 83 162 2.0 7.0 0.00 0.00 0.00 66 1016.8
20260905135704 83 162 2.0 7.0 0.00 0.00 0.00 66 1016.7
20260905135604 83 164 2.0 7.0 0.00 0.00 0.00 66 1016.7
20260905135504 83 166 2.0 7.0 0.00 0.00 0.00 66 1016.8
20260905135404 83 164 2.0 7.0 0.00 0.00 0.00 66 1016.8
20260905135306 82 163 2.0 7.0 0.00 0.00 0.00 67 1016.7
20260905135204 82 162 2.0 7.0 0.00 0.00 0.00 67 1016.8
20260905135104 82 162 2.0 7.0 0.00 0.00 0.00 67 1016.7
20260905134904 82 158 2.0 7.0 0.00 0.00 0.00 66 1016.8
20260905134804 82 152 2.0 7.0 0.00 0.00 0.00 67 1016.7
20260905134704 82 150 2.0 4.0 0.00 0.00 0.00 67 1016.7
20260905134604 82 152 2.0 4.0 0.00 0.00 0.00 67 1016.8
20260905134504 82 151 2.0 5.0 0.00 0.00 0.00 68 1016.8
20260905134304 82 154 1.0 5.0 0.00 0.00 0.00 68 1016.8
20260905134104 82 155 1.0 5.0 0.00 0.00 0.00 68 1016.8
20260905133804 81 151 1.0 5.0 0.00 0.00 0.00 68 1016.8
20260905133704 81 151 1.0 5.0 0.00 0.00 0.00 68 1016.8
20260905133604 81 149 1.0 5.0 0.00 0.00 0.00 69 1016.8
20260905133504 81 146 1.0 5.0 0.00 0.00 0.00 69 1016.8
20260905133404 81 145 1.0 5.0 0.00 0.00 0.00 69 1016.8
20260905133304 81 144 1.0 5.0 0.00 0.00 0.00 69 1016.8
20260905133205 81 140 1.0 5.0 0.00 0.00 0.00 69 1016.8
20260905133104 81 139 1.0 5.0 0.00 0.00 0.00 69 1016.8
20260905133005 81 140 1.0 5.0 0.00 0.00 0.00 69 1016.8
20260905132905 81 142 1.0 5.0 0.00 0.00 0.00 69 1016.8
20260905132704 80 141 1.0 5.0 0.00 0.00 0.00 70 1016.8
20260905132604 80 138 1.0 4.0 0.00 0.00 0.00 70 1016.7
20260905132504 80 136 1.0 3.0 0.00 0.00 0.00 70 1016.7
20260905132404 80 140 1.0 3.0 0.00 0.00 0.00 70 1016.7
20260905132306 80 141 1.0 3.0 0.00 0.00 0.00 70 1016.8
20260905132204 80 141 1.0 3.0 0.00 0.00 0.00 70 1016.7
20260905132104 80 140 1.0 4.0 0.00 0.00 0.00 70 1016.7
20260905132004 80 139 1.0 4.0 0.00 0.00 0.00 70 1016.6
20260905131905 80 138 1.0 4.0 0.00 0.00 0.00 71 1016.7
20260905131604 80 138 1.0 4.0 0.00 0.00 0.00 71 1016.7
20260905131504 80 137 1.0 4.0 0.00 0.00 0.00 71 1016.6
20260905131404 79 133 1.0 4.0 0.00 0.00 0.00 71 1016.6
20260905131304 79 134 1.0 4.0 0.00 0.00 0.00 71 1016.7
20260905131204 79 133 1.0 4.0 0.00 0.00 0.00 71 1016.7
20260905131104 79 133 1.0 3.0 0.00 0.00 0.00 71 1016.7
20260905131004 79 135 1.0 3.0 0.00 0.00 0.00 71 1016.6
20260905130804 79 136 1.0 3.0 0.00 0.00 0.00 72 1016.7
20260905130704 79 136 1.0 3.0 0.00 0.00 0.00 72 1016.6
20260905130604 79 139 1.0 3.0 0.00 0.00 0.00 72 1016.6
20260905130504 78 140 1.0 3.0 0.00 0.00 0.00 72 1016.6
20260905130305 78 140 0.0 2.0 0.00 0.00 0.00 73 1016.5
20260905130205 78 143 0.0 2.0 0.00 0.00 0.00 73 1016.5
20260905130105 78 145 0.0 2.0 0.00 0.00 0.00 73 1016.5
20260905130005 78 147 0.0 2.0 0.00 0.00 0.00 74 1016.5
20260905125904 78 149 0.0 2.0 0.00 0.00 0.00 74 1016.4
20260905125804 78 152 0.0 2.0 0.00 0.00 0.00 74 1016.4
20260905125704 78 153 0.0 2.0 0.00 0.00 0.00 74 1016.4
20260905125605 78 154 0.0 2.0 0.00 0.00 0.00 75 1016.4
20260905125504 77 150 0.0 2.0 0.00 0.00 0.00 75 1016.3
20260905125404 77 150 0.0 2.0 0.00 0.00 0.00 75 1016.3
20260905125306 77 148 0.0 2.0 0.00 0.00 0.00 75 1016.3
20260905125204 77 151 0.0 3.0 0.00 0.00 0.00 75 1016.3
20260905125104 77 153 0.0 3.0 0.00 0.00 0.00 75 1016.3
20260905125004 77 157 0.0 3.0 0.00 0.00 0.00 75 1016.3
20260905124804 77 160 0.0 3.0 0.00 0.00 0.00 75 1016.3
20260905124704 77 156 0.0 3.0 0.00 0.00 0.00 75 1016.3
20260905124505 77 156 0.0 3.0 0.00 0.00 0.00 75 1016.3
20260905124405 77 153 0.0 3.0 0.00 0.00 0.00 75 1016.3
20260905124304 77 153 0.0 3.0 0.00 0.00 0.00 75 1016.3
20260905124204 77 151 0.0 3.0 0.00 0.00 0.00 75 1016.3
20260905124104 77 149 0.0 3.0 0.00 0.00 0.00 75 1016.3
20260905124004 77 144 0.0 2.0 0.00 0.00 0.00 75 1016.3
20260905123804 77 138 0.0 2.0 0.00 0.00 0.00 75 1016.3
20260905123704 77 139 0.0 2.0 0.00 0.00 0.00 76 1016.2
20260905123605 77 139 0.0 2.0 0.00 0.00 0.00 76 1016.2
20260905123504 76 140 0.0 2.0 0.00 0.00 0.00 76 1016.2
20260905123304 76 140 0.0 1.0 0.00 0.00 0.00 76 1016.3
20260905123104 76 141 0.0 1.0 0.00 0.00 0.00 76 1016.3
20260905123004 76 142 0.0 1.0 0.00 0.00 0.00 76 1016.2
20260905122804 76 142 0.0 1.0 0.00 0.00 0.00 76 1016.2
20260905122704 76 144 0.0 1.0 0.00 0.00 0.00 76 1016.2
20260905122604 76 150 0.0 1.0 0.00 0.00 0.00 76 1016.2
20260905122504 76 156 0.0 2.0 0.00 0.00 0.00 76 1016.2
20260905122404 76 156 0.0 2.0 0.00 0.00 0.00 76 1016.2
20260905122306 76 157 0.0 2.0 0.00 0.00 0.00 76 1016.2
20260905122204 76 158 0.0 2.0 0.00 0.00 0.00 76 1016.2
20260905122104 76 158 0.0 2.0 0.00 0.00 0.00 76 1016.1
20260905122004 76 160 0.0 2.0 0.00 0.00 0.00 76 1016.1
20260905121904 76 160 0.0 2.0 0.00 0.00 0.00 76 1016.1
20260905121804 76 160 0.0 2.0 0.00 0.00 0.00 76 1016.1
20260905121705 76 160 0.0 2.0 0.00 0.00 0.00 76 1016.1
20260905121604 76 158 0.0 2.0 0.00 0.00 0.00 76 1016.1
20260905121504 76 148 0.0 1.0 0.00 0.00 0.00 76 1016.1
20260905121404 76 148 0.0 1.0 0.00 0.00 0.00 76 1016.1
20260905121304 76 148 0.0 1.0 0.00 0.00 0.00 76 1016.1
20260905121004 76 0 0.0 0.0 0.00 0.00 0.00 76 1016.1
20260905120904 76 0 0.0 0.0 0.00 0.00 0.00 76 1016.1
20260905120804 76 0 0.0 0.0 0.00 0.00 0.00 76 1016.1
20260905120704 76 0 0.0 0.0 0.00 0.00 0.00 76 1016.1
20260905120605 76 0 0.0 0.0 0.00 0.00 0.00 76 1016.1
20260905120504 76 0 0.0 0.0 0.00 0.00 0.00 76 1016.1
20260905120404 76 0 0.0 0.0 0.00 0.00 0.00 76 1016.1
20260905120304 76 0 0.0 0.0 0.00 0.00 0.00 76 1016.1
20260905120204 76 0 0.0 0.0 0.00 0.00 0.00 76 1016.1
20260905120104 76 0 0.0 0.0 0.00 0.00 0.00 76 1016.1
20260905115704 76 169 0.0 1.0 0.00 0.00 0.00 76 1016.1
20260905115604 77 169 0.0 1.0 0.00 0.00 0.00 76 1016.0
20260905115504 77 169 0.0 1.0 0.00 0.00 0.00 76 1016.1
20260905115404 77 169 0.0 1.0 0.00 0.00 0.00 76 1016.1
20260905115306 77 169 0.0 1.0 0.00 0.00 0.00 75 1016.1
20260905115204 77 169 0.0 1.0 0.00 0.00 0.00 75 1016.1
20260905115104 77 169 0.0 1.0 0.00 0.00 0.00 75 1016.1
20260905115004 77 164 0.0 2.0 0.00 0.00 0.00 75 1016.1
20260905114705 77 161 0.0 2.0 0.00 0.00 0.00 75 1016.1
20260905114404 77 160 0.0 2.0 0.00 0.00 0.00 75 1016.0
20260905114304 77 160 0.0 2.0 0.00 0.00 0.00 75 1016.0
20260905114104 77 159 0.0 2.0 0.00 0.00 0.00 75 1016.0
20260905114004 77 159 0.0 2.0 0.00 0.00 0.00 75 1016.0
20260905113804 77 159 0.0 2.0 0.00 0.00 0.00 75 1016.0
20260905113704 77 159 0.0 2.0 0.00 0.00 0.00 75 1016.0
20260905113604 77 159 0.0 2.0 0.00 0.00 0.00 75 1015.9
20260905113504 77 158 0.0 2.0 0.00 0.00 0.00 75 1015.9
20260905113404 77 158 0.0 2.0 0.00 0.00 0.00 75 1015.9
20260905113304 77 159 0.0 2.0 0.00 0.00 0.00 75 1016.0
20260905113204 77 158 0.0 2.0 0.00 0.00 0.00 75 1015.9
20260905113104 77 157 0.0 2.0 0.00 0.00 0.00 75 1015.9
20260905113004 77 156 0.0 2.0 0.00 0.00 0.00 74 1016.0
20260905112904 77 154 0.0 2.0 0.00 0.00 0.00 74 1016.0
20260905112504 77 148 0.0 2.0 0.00 0.00 0.00 74 1016.0
20260905112404 77 146 0.0 2.0 0.00 0.00 0.00 74 1015.9
20260905112306 77 142 0.0 2.0 0.00 0.00 0.00 74 1016.0
20260905112204 77 142 0.0 2.0 0.00 0.00 0.00 74 1015.9
20260905112104 77 141 0.0 2.0 0.00 0.00 0.00 74 1016.0
20260905112004 77 141 0.0 2.0 0.00 0.00 0.00 74 1016.0
20260905111804 77 140 0.0 2.0 0.00 0.00 0.00 74 1015.9
20260905111704 77 140 0.0 2.0 0.00 0.00 0.00 74 1015.9
20260905111604 77 140 0.0 2.0 0.00 0.00 0.00 74 1015.9
20260905111504 77 138 0.0 2.0 0.00 0.00 0.00 74 1015.9
20260905111404 77 137 0.0 2.0 0.00 0.00 0.00 74 1015.9
20260905111004 77 145 0.0 2.0 0.00 0.00 0.00 74 1015.9
20260905110904 77 147 0.0 2.0 0.00 0.00 0.00 74 1016.0
20260905110804 77 147 0.0 2.0 0.00 0.00 0.00 74 1016.0
20260905110704 77 149 0.0 2.0 0.00 0.00 0.00 74 1016.0
20260905110505 77 150 0.0 2.0 0.00 0.00 0.00 74 1016.0
20260905110405 77 150 0.0 2.0 0.00 0.00 0.00 74 1016.0
20260905110304 77 151 0.0 2.0 0.00 0.00 0.00 74 1015.9
20260905110205 77 151 0.0 2.0 0.00 0.00 0.00 74 1015.9
20260905105904 77 152 0.0 1.0 0.00 0.00 0.00 74 1015.9
20260905105604 77 152 0.0 2.0 0.00 0.00 0.00 74 1015.9
20260905105504 77 152 0.0 2.0 0.00 0.00 0.00 74 1015.9
20260905105306 77 152 0.0 2.0 0.00 0.00 0.00 74 1015.9
20260905105204 77 152 0.0 2.0 0.00 0.00 0.00 74 1016.0
20260905105104 77 152 0.0 2.0 0.00 0.00 0.00 74 1015.9
20260905105004 77 152 0.0 2.0 0.00 0.00 0.00 74 1016.0
20260905104904 77 152 0.0 2.0 0.00 0.00 0.00 74 1016.0
20260905104804 77 0 0.0 0.0 0.00 0.00 0.00 74 1016.0
20260905104704 77 0 0.0 0.0 0.00 0.00 0.00 74 1016.0
20260905104504 78 0 0.0 0.0 0.00 0.00 0.00 74 1016.0
20260905104404 78 0 0.0 0.0 0.00 0.00 0.00 74 1016.0
20260905104304 78 0 0.0 0.0 0.00 0.00 0.00 74 1016.1
20260905104204 78 0 0.0 0.0 0.00 0.00 0.00 74 1016.0
20260905104104 78 152 0.0 1.0 0.00 0.00 0.00 74 1016.0
20260905104004 78 152 0.0 1.0 0.00 0.00 0.00 74 1016.0
20260905103904 78 152 0.0 1.0 0.00 0.00 0.00 74 1016.0
20260905103804 78 152 0.0 1.0 0.00 0.00 0.00 74 1016.0
20260905103704 78 152 0.0 1.0 0.00 0.00 0.00 74 1016.0
20260905103604 78 152 0.0 1.0 0.00 0.00 0.00 73 1016.1
20260905103504 78 152 0.0 1.0 0.00 0.00 0.00 73 1016.1
20260905103405 78 152 0.0 1.0 0.00 0.00 0.00 73 1016.1
20260905103305 78 152 0.0 1.0 0.00 0.00 0.00 73 1016.1
20260905103205 78 152 0.0 1.0 0.00 0.00 0.00 73 1016.1
20260905103105 78 152 0.0 1.0 0.00 0.00 0.00 73 1016.0
20260905103005 78 152 0.0 2.0 0.00 0.00 0.00 73 1016.1
20260905102904 78 152 0.0 2.0 0.00 0.00 0.00 73 1016.1
20260905102704 78 152 0.0 2.0 0.00 0.00 0.00 73 1016.1
20260905102604 78 152 0.0 2.0 0.00 0.00 0.00 73 1016.1
20260905102504 78 152 0.0 2.0 0.00 0.00 0.00 73 1016.2
20260905102306 78 152 0.0 2.0 0.00 0.00 0.00 73 1016.1
20260905102205 78 152 0.0 2.0 0.00 0.00 0.00 73 1016.2
20260905102105 78 152 0.0 2.0 0.00 0.00 0.00 73 1016.2
20260905101904 78 152 0.0 2.0 0.00 0.00 0.00 73 1016.1
20260905101804 78 152 0.0 2.0 0.00 0.00 0.00 73 1016.1
20260905101704 78 152 0.0 2.0 0.00 0.00 0.00 73 1016.2
20260905101604 78 152 0.0 2.0 0.00 0.00 0.00 73 1016.1
20260905101505 78 152 0.0 2.0 0.00 0.00 0.00 73 1016.1
20260905101404 78 152 0.0 2.0 0.00 0.00 0.00 73 1016.1
20260905101304 78 153 0.0 2.0 0.00 0.00 0.00 73 1016.1
20260905101204 78 153 0.0 2.0 0.00 0.00 0.00 73 1016.1
20260905101104 78 153 0.0 2.0 0.00 0.00 0.00 73 1016.1
20260905101004 78 153 0.0 2.0 0.00 0.00 0.00 73 1016.0
20260905100904 78 153 0.0 2.0 0.00 0.00 0.00 73 1016.1
20260905100804 78 153 0.0 2.0 0.00 0.00 0.00 73 1016.1
20260905100704 78 153 0.0 2.0 0.00 0.00 0.00 73 1016.1
20260905100604 78 153 0.0 2.0 0.00 0.00 0.00 73 1016.1
20260905100404 78 153 0.0 2.0 0.00 0.00 0.00 73 1016.1
20260905100205 78 152 0.0 2.0 0.00 0.00 0.00 73 1016.0
20260905100105 78 152 0.0 2.0 0.00 0.00 0.00 73 1016.0
20260905095804 78 154 0.0 2.0 0.00 0.00 0.00 73 1016.1
20260905095704 78 154 0.0 2.0 0.00 0.00 0.00 73 1016.1
20260905095604 78 154 0.0 2.0 0.00 0.00 0.00 73 1016.2
20260905095504 78 154 0.0 2.0 0.00 0.00 0.00 73 1016.1
20260905095404 78 156 0.0 2.0 0.00 0.00 0.00 73 1016.2
20260905095306 78 156 0.0 1.0 0.00 0.00 0.00 73 1016.2
20260905095105 78 156 0.0 1.0 0.00 0.00 0.00 72 1016.3
20260905095005 78 157 0.0 1.0 0.00 0.00 0.00 73 1016.3
20260905094905 78 158 0.0 2.0 0.00 0.00 0.00 72 1016.3
20260905094805 78 160 0.0 3.0 0.00 0.00 0.00 72 1016.4
20260905094705 78 159 0.0 3.0 0.00 0.00 0.00 72 1016.4
20260905094605 78 159 0.0 3.0 0.00 0.00 0.00 72 1016.3
20260905094404 78 158 0.0 3.0 0.00 0.00 0.00 72 1016.3
20260905094304 78 158 0.0 3.0 0.00 0.00 0.00 72 1016.3
20260905094104 78 156 0.0 3.0 0.00 0.00 0.00 72 1016.3
20260905094004 78 156 0.0 3.0 0.00 0.00 0.00 72 1016.3
20260905093904 78 155 0.0 3.0 0.00 0.00 0.00 72 1016.3
20260905093804 79 153 0.0 2.0 0.00 0.00 0.00 72 1016.3
20260905093704 79 156 0.0 2.0 0.00 0.00 0.00 72 1016.3
20260905093604 79 155 0.0 2.0 0.00 0.00 0.00 72 1016.4
20260905093404 79 154 0.0 2.0 0.00 0.00 0.00 72 1016.3
20260905093304 79 154 0.0 2.0 0.00 0.00 0.00 72 1016.4
20260905093204 79 154 0.0 2.0 0.00 0.00 0.00 72 1016.4
20260905093104 79 154 0.0 2.0 0.00 0.00 0.00 72 1016.4
20260905093005 79 155 0.0 2.0 0.00 0.00 0.00 72 1016.4
20260905092905 79 155 0.0 2.0 0.00 0.00 0.00 72 1016.4
20260905092805 79 155 0.0 2.0 0.00 0.00 0.00 72 1016.4
20260905092705 79 149 0.0 2.0 0.00 0.00 0.00 72 1016.4
20260905092605 79 149 0.0 2.0 0.00 0.00 0.00 72 1016.4
20260905092404 79 151 0.0 1.0 0.00 0.00 0.00 72 1016.4
20260905092306 79 152 0.0 1.0 0.00 0.00 0.00 72 1016.4
20260905092204 79 151 0.0 2.0 0.00 0.00 0.00 72 1016.4
20260905092104 79 151 0.0 2.0 0.00 0.00 0.00 71 1016.4
20260905092004 79 149 0.0 2.0 0.00 0.00 0.00 72 1016.4
20260905091904 79 147 0.0 2.0 0.00 0.00 0.00 71 1016.4
20260905091804 79 147 0.0 2.0 0.00 0.00 0.00 71 1016.4
20260905091704 79 147 0.0 2.0 0.00 0.00 0.00 71 1016.4
20260905091604 79 147 0.0 2.0 0.00 0.00 0.00 71 1016.4
20260905091504 79 147 0.0 2.0 0.00 0.00 0.00 71 1016.4
20260905091404 79 148 0.0 2.0 0.00 0.00 0.00 71 1016.3
20260905091304 79 147 0.0 2.0 0.00 0.00 0.00 71 1016.4
20260905091204 79 146 0.0 2.0 0.00 0.00 0.00 71 1016.4
20260905091104 79 146 0.0 2.0 0.00 0.00 0.00 71 1016.5
20260905091004 79 146 0.0 2.0 0.00 0.00 0.00 71 1016.4
20260905090904 79 146 0.0 2.0 0.00 0.00 0.00 71 1016.5
20260905090805 79 146 0.0 2.0 0.00 0.00 0.00 71 1016.4
20260905090705 79 146 0.0 2.0 0.00 0.00 0.00 71 1016.5
20260905090605 79 146 0.0 2.0 0.00 0.00 0.00 71 1016.5
20260905090504 79 146 0.0 2.0 0.00 0.00 0.00 71 1016.5
20260905090404 79 144 0.0 1.0 0.00 0.00 0.00 71 1016.5
20260905090304 79 145 0.0 1.0 0.00 0.00 0.00 71 1016.5
20260905090204 79 145 0.0 1.0 0.00 0.00 0.00 71 1016.5
20260905090104 79 145 0.0 1.0 0.00 0.00 0.00 71 1016.5
20260905090004 79 145 0.0 1.0 0.00 0.00 0.00 71 1016.5
20260905085904 79 145 0.0 1.0 0.00 0.00 0.00 71 1016.5
20260905085804 79 145 0.0 1.0 0.00 0.00 0.00 71 1016.5
20260905085704 79 145 0.0 1.0 0.00 0.00 0.00 71 1016.4
20260905085604 79 144 0.0 1.0 0.00 0.00 0.00 71 1016.5
20260905085505 79 144 0.0 1.0 0.00 0.00 0.00 71 1016.4
20260905085405 80 145 0.0 1.0 0.00 0.00 0.00 70 1016.4
20260905085306 79 145 0.0 1.0 0.00 0.00 0.00 70 1016.5
20260905085205 80 144 0.0 2.0 0.00 0.00 0.00 71 1016.5
20260905085104 80 144 0.0 2.0 0.00 0.00 0.00 70 1016.4
20260905085004 80 142 0.0 2.0 0.00 0.00 0.00 70 1016.5
20260905084904 80 142 0.0 2.0 0.00 0.00 0.00 70 1016.5
20260905084804 80 142 0.0 2.0 0.00 0.00 0.00 70 1016.5
20260905084704 80 142 0.0 2.0 0.00 0.00 0.00 70 1016.5
20260905084405 80 141 0.0 2.0 0.00 0.00 0.00 70 1016.5
20260905084205 80 139 0.0 2.0 0.00 0.00 0.00 70 1016.5
20260905084004 80 138 0.0 1.0 0.00 0.00 0.00 70 1016.5
20260905083904 80 138 0.0 1.0 0.00 0.00 0.00 70 1016.4
20260905083804 80 138 0.0 1.0 0.00 0.00 0.00 70 1016.4
20260905083704 80 138 0.0 1.0 0.00 0.00 0.00 70 1016.4
20260905083604 80 138 0.0 1.0 0.00 0.00 0.00 70 1016.4
20260905083504 80 139 0.0 1.0 0.00 0.00 0.00 70 1016.4
20260905083404 80 0 0.0 0.0 0.00 0.00 0.00 70 1016.4
20260905083304 80 145 0.0 2.0 0.00 0.00 0.00 70 1016.4
20260905083204 80 145 0.0 2.0 0.00 0.00 0.00 70 1016.4
20260905082904 80 145 0.0 2.0 0.00 0.00 0.00 69 1016.4
20260905082804 80 145 0.0 2.0 0.00 0.00 0.00 69 1016.4
20260905082604 80 145 0.0 2.0 0.00 0.00 0.00 69 1016.5
20260905082505 80 145 0.0 2.0 0.00 0.00 0.00 69 1016.4
20260905082405 80 145 0.0 2.0 0.00 0.00 0.00 69 1016.4
20260905082307 80 145 0.0 2.0 0.00 0.00 0.00 69 1016.5
20260905082204 80 146 0.0 2.0 0.00 0.00 0.00 69 1016.5
20260905082104 80 147 0.0 2.0 0.00 0.00 0.00 69 1016.5
20260905082005 80 147 0.0 2.0 0.00 0.00 0.00 69 1016.5
20260905081904 80 147 0.0 2.0 0.00 0.00 0.00 69 1016.5
20260905081804 80 145 0.0 2.0 0.00 0.00 0.00 69 1016.5
20260905081704 80 145 0.0 2.0 0.00 0.00 0.00 69 1016.5
20260905081604 80 145 0.0 2.0 0.00 0.00 0.00 69 1016.5
20260905081504 80 145 0.0 2.0 0.00 0.00 0.00 69 1016.5
20260905081405 80 144 0.0 2.0 0.00 0.00 0.00 68 1016.5
20260905081304 81 144 0.0 2.0 0.00 0.00 0.00 68 1016.4
20260905081205 81 143 0.0 2.0 0.00 0.00 0.00 68 1016.4
20260905081105 81 140 0.0 2.0 0.00 0.00 0.00 68 1016.4
20260905081005 81 139 0.0 1.0 0.00 0.00 0.00 68 1016.5
20260905080905 81 142 0.0 2.0 0.00 0.00 0.00 68 1016.4
20260905080704 81 150 0.0 3.0 0.00 0.00 0.00 68 1016.4
20260905080604 81 151 0.0 3.0 0.00 0.00 0.00 68 1016.4
20260905080504 81 150 0.0 3.0 0.00 0.00 0.00 68 1016.4
20260905080404 81 152 0.0 3.0 0.00 0.00 0.00 68 1016.4
20260905080304 81 152 0.0 3.0 0.00 0.00 0.00 68 1016.4
20260905080204 81 151 0.0 3.0 0.00 0.00 0.00 68 1016.4
20260905080104 81 150 0.0 3.0 0.00 0.00 0.00 68 1016.4
20260905080004 81 149 1.0 3.0 0.00 0.00 0.00 68 1016.4
20260905075904 81 146 1.0 4.0 0.00 0.00 0.00 67 1016.4
20260905075804 81 147 1.0 4.0 0.00 0.00 0.00 67 1016.4
20260905075704 81 144 1.0 4.0 0.00 0.00 0.00 67 1016.4
20260905075604 81 146 1.0 4.0 0.00 0.00 0.00 67 1016.4
20260905075504 81 147 1.0 4.0 0.00 0.00 0.00 67 1016.4
20260905075404 81 147 1.0 4.0 0.00 0.00 0.00 67 1016.4
20260905075306 81 147 1.0 4.0 0.00 0.00 0.00 67 1016.4
20260905075204 81 156 1.0 4.0 0.00 0.00 0.00 67 1016.4
20260905075104 82 158 1.0 4.0 0.00 0.00 0.00 67 1016.4
20260905075004 82 158 1.0 4.0 0.00 0.00 0.00 67 1016.4
20260905074904 82 159 1.0 4.0 0.00 0.00 0.00 67 1016.4
20260905074804 82 157 1.0 4.0 0.00 0.00 0.00 67 1016.4
20260905074604 82 155 1.0 4.0 0.00 0.00 0.00 67 1016.4
20260905074504 82 153 1.0 4.0 0.00 0.00 0.00 67 1016.4
20260905074404 82 156 1.0 4.0 0.00 0.00 0.00 66 1016.4
20260905074204 82 148 1.0 3.0 0.00 0.00 0.00 66 1016.3
20260905074104 82 148 1.0 3.0 0.00 0.00 0.00 66 1016.3
20260905073904 82 148 1.0 3.0 0.00 0.00 0.00 66 1016.3
20260905073804 82 147 1.0 3.0 0.00 0.00 0.00 66 1016.3
20260905073704 82 150 1.0 5.0 0.00 0.00 0.00 66 1016.3
20260905073604 82 150 1.0 5.0 0.00 0.00 0.00 66 1016.3
20260905073504 82 150 1.0 5.0 0.00 0.00 0.00 66 1016.3
20260905073404 82 147 1.0 5.0 0.00 0.00 0.00 66 1016.3
20260905073304 82 148 1.0 5.0 0.00 0.00 0.00 66 1016.3
20260905073204 82 150 1.0 5.0 0.00 0.00 0.00 66 1016.3
20260905073004 82 150 1.0 5.0 0.00 0.00 0.00 66 1016.3
20260905072904 82 158 1.0 5.0 0.00 0.00 0.00 66 1016.3
20260905072804 82 158 1.0 5.0 0.00 0.00 0.00 66 1016.3
20260905072704 82 159 1.0 6.0 0.00 0.00 0.00 66 1016.3
20260905072604 82 159 1.0 6.0 0.00 0.00 0.00 66 1016.3
20260905072504 82 156 1.0 6.0 0.00 0.00 0.00 66 1016.3
20260905072404 82 156 1.0 6.0 0.00 0.00 0.00 66 1016.2
20260905072306 82 153 1.0 6.0 0.00 0.00 0.00 66 1016.2
20260905072204 82 153 1.0 6.0 0.00 0.00 0.00 66 1016.2
20260905072104 82 152 1.0 6.0 0.00 0.00 0.00 66 1016.2
20260905072004 82 152 1.0 6.0 0.00 0.00 0.00 65 1016.3
20260905071904 82 146 1.0 6.0 0.00 0.00 0.00 65 1016.2
20260905071804 82 147 1.0 6.0 0.00 0.00 0.00 65 1016.2
20260905071704 82 146 1.0 4.0 0.00 0.00 0.00 65 1016.2
20260905071604 82 148 2.0 6.0 0.00 0.00 0.00 65 1016.1
20260905071504 82 152 2.0 6.0 0.00 0.00 0.00 65 1016.2
20260905071404 82 155 2.0 8.0 0.00 0.00 0.00 65 1016.2
20260905071304 83 156 2.0 8.0 0.00 0.00 0.00 65 1016.1
20260905071204 83 154 2.0 8.0 0.00 0.00 0.00 65 1016.2
20260905070904 83 152 1.0 8.0 0.00 0.00 0.00 65 1016.1
20260905070804 83 151 1.0 8.0 0.00 0.00 0.00 65 1016.1
20260905070704 83 151 1.0 8.0 0.00 0.00 0.00 65 1016.1
20260905070604 83 149 1.0 8.0 0.00 0.00 0.00 65 1016.1
20260905070504 83 145 1.0 8.0 0.00 0.00 0.00 65 1016.1
20260905070404 83 138 1.0 5.0 0.00 0.00 0.00 65 1016.0
20260905070304 83 138 1.0 4.0 0.00 0.00 0.00 65 1016.1
20260905070204 83 140 1.0 4.0 0.00 0.00 0.00 65 1016.0
20260905070104 83 138 1.0 4.0 0.00 0.00 0.00 65 1016.0
20260905070004 83 140 1.0 4.0 0.00 0.00 0.00 65 1016.1
20260905065904 83 137 1.0 4.0 0.00 0.00 0.00 65 1016.0
20260905065704 83 133 1.0 4.0 0.00 0.00 0.00 65 1016.1
20260905065604 83 130 1.0 3.0 0.00 0.00 0.00 65 1016.0
20260905065504 83 129 1.0 3.0 0.00 0.00 0.00 65 1016.0
20260905065404 83 128 1.0 3.0 0.00 0.00 0.00 65 1016.0
20260905065306 83 127 1.0 3.0 0.00 0.00 0.00 65 1016.0
20260905065204 83 130 1.0 3.0 0.00 0.00 0.00 65 1016.0
20260905065105 83 131 1.0 3.0 0.00 0.00 0.00 65 1016.0
20260905065004 83 129 1.0 3.0 0.00 0.00 0.00 65 1016.0
20260905064904 83 128 1.0 3.0 0.00 0.00 0.00 64 1016.0
20260905064804 83 129 1.0 3.0 0.00 0.00 0.00 65 1016.0
20260905064704 83 131 1.0 3.0 0.00 0.00 0.00 65 1016.1
20260905064604 83 132 1.0 3.0 0.00 0.00 0.00 64 1016.1
20260905064504 83 134 1.0 3.0 0.00 0.00 0.00 64 1016.0
20260905064404 83 135 1.0 3.0 0.00 0.00 0.00 65 1016.1
20260905064204 83 134 1.0 3.0 0.00 0.00 0.00 64 1016.1
20260905064104 83 133 1.0 3.0 0.00 0.00 0.00 64 1016.1
20260905064004 83 136 1.0 3.0 0.00 0.00 0.00 64 1016.1
20260905063905 83 144 1.0 6.0 0.00 0.00 0.00 65 1016.0
20260905063805 83 143 1.0 6.0 0.00 0.00 0.00 64 1016.0
20260905063704 83 141 1.0 6.0 0.00 0.00 0.00 64 1016.0
20260905063605 83 142 1.0 6.0 0.00 0.00 0.00 64 1016.0
20260905063505 83 142 1.0 6.0 0.00 0.00 0.00 64 1015.9
20260905063304 83 144 1.0 6.0 0.00 0.00 0.00 64 1015.9
20260905063204 83 148 1.0 6.0 0.00 0.00 0.00 64 1015.9
20260905063104 83 148 1.0 6.0 0.00 0.00 0.00 64 1015.9
20260905063004 83 147 1.0 6.0 0.00 0.00 0.00 64 1015.9
20260905062904 83 143 1.0 3.0 0.00 0.00 0.00 64 1015.9
20260905062804 83 142 1.0 3.0 0.00 0.00 0.00 64 1015.9
20260905062704 83 139 1.0 3.0 0.00 0.00 0.00 64 1015.9
20260905062604 83 136 1.0 3.0 0.00 0.00 0.00 64 1015.9
20260905062504 83 135 1.0 3.0 0.00 0.00 0.00 64 1015.9
20260905062405 83 133 1.0 3.0 0.00 0.00 0.00 64 1015.8
20260905062306 83 134 1.0 3.0 0.00 0.00 0.00 64 1015.8
20260905062104 84 130 1.0 3.0 0.00 0.00 0.00 64 1015.8
20260905061805 84 128 1.0 3.0 0.00 0.00 0.00 64 1015.8
20260905061705 84 130 1.0 4.0 0.00 0.00 0.00 64 1015.8
20260905061604 84 131 1.0 4.0 0.00 0.00 0.00 64 1015.8
20260905061404 84 135 1.0 4.0 0.00 0.00 0.00 64 1015.8
20260905061304 84 133 1.0 4.0 0.00 0.00 0.00 64 1015.8
20260905061204 84 132 1.0 4.0 0.00 0.00 0.00 63 1015.8
20260905061104 84 133 1.0 4.0 0.00 0.00 0.00 64 1015.8
20260905061004 84 133 1.0 4.0 0.00 0.00 0.00 64 1015.8
20260905060904 84 134 1.0 4.0 0.00 0.00 0.00 63 1015.8
20260905060804 84 138 1.0 4.0 0.00 0.00 0.00 64 1015.8
20260905060704 84 140 1.0 4.0 0.00 0.00 0.00 64 1015.8
20260905060504 84 141 1.0 4.0 0.00 0.00 0.00 63 1015.8
20260905060404 84 140 1.0 3.0 0.00 0.00 0.00 63 1015.8
20260905060304 84 140 1.0 3.0 0.00 0.00 0.00 63 1015.8
20260905060204 84 141 1.0 3.0 0.00 0.00 0.00 63 1015.7
20260905060104 84 143 1.0 3.0 0.00 0.00 0.00 63 1015.7
20260905055904 84 145 1.0 3.0 0.00 0.00 0.00 63 1015.7
20260905055804 84 143 1.0 3.0 0.00 0.00 0.00 63 1015.7
20260905055704 84 143 1.0 3.0 0.00 0.00 0.00 63 1015.7
20260905055604 84 146 1.0 3.0 0.00 0.00 0.00 63 1015.7
20260905055505 84 146 1.0 3.0 0.00 0.00 0.00 63 1015.7
20260905055404 84 146 1.0 3.0 0.00 0.00 0.00 63 1015.7
20260905055306 84 148 1.0 3.0 0.00 0.00 0.00 63 1015.7
20260905055204 84 147 1.0 3.0 0.00 0.00 0.00 63 1015.7
20260905055004 84 148 1.0 3.0 0.00 0.00 0.00 63 1015.7
20260905054904 84 148 1.0 3.0 0.00 0.00 0.00 62 1015.8
20260905054804 84 151 1.0 4.0 0.00 0.00 0.00 62 1015.7
20260905054704 84 152 1.0 4.0 0.00 0.00 0.00 63 1015.7
20260905054604 84 149 1.0 4.0 0.00 0.00 0.00 62 1015.7
20260905054504 84 148 1.0 4.0 0.00 0.00 0.00 62 1015.7
20260905054304 84 148 1.0 4.0 0.00 0.00 0.00 62 1015.8
20260905054204 85 149 1.0 4.0 0.00 0.00 0.00 62 1015.7
20260905054104 85 149 1.0 5.0 0.00 0.00 0.00 62 1015.8
20260905054004 85 149 1.0 5.0 0.00 0.00 0.00 62 1015.7
20260905053904 85 149 1.0 5.0 0.00 0.00 0.00 62 1015.7
20260905053804 85 145 1.0 5.0 0.00 0.00 0.00 62 1015.7
20260905053704 85 144 1.0 5.0 0.00 0.00 0.00 62 1015.7
20260905053604 85 144 1.0 5.0 0.00 0.00 0.00 62 1015.7
20260905053404 85 139 1.0 5.0 0.00 0.00 0.00 62 1015.6
20260905053304 85 139 1.0 5.0 0.00 0.00 0.00 61 1015.6
20260905053204 85 140 1.0 5.0 0.00 0.00 0.00 61 1015.6
20260905053104 85 138 1.0 4.0 0.00 0.00 0.00 62 1015.6
20260905053004 85 140 1.0 4.0 0.00 0.00 0.00 61 1015.7
20260905052904 85 140 1.0 4.0 0.00 0.00 0.00 61 1015.7
20260905052804 85 132 1.0 4.0 0.00 0.00 0.00 61 1015.7
20260905052704 85 131 1.0 4.0 0.00 0.00 0.00 61 1015.7
20260905052604 85 133 1.0 4.0 0.00 0.00 0.00 61 1015.7
20260905052504 85 133 1.0 4.0 0.00 0.00 0.00 61 1015.7
20260905052404 85 138 1.0 4.0 0.00 0.00 0.00 61 1015.7
20260905052306 85 136 0.0 2.0 0.00 0.00 0.00 61 1015.7
20260905052204 85 134 1.0 2.0 0.00 0.00 0.00 61 1015.7
20260905052104 85 135 1.0 2.0 0.00 0.00 0.00 61 1015.8
20260905052004 85 135 1.0 2.0 0.00 0.00 0.00 60 1015.7
20260905051904 85 133 1.0 2.0 0.00 0.00 0.00 61 1015.8
20260905051804 85 136 0.0 2.0 0.00 0.00 0.00 61 1015.8
20260905051605 86 137 0.0 2.0 0.00 0.00 0.00 60 1015.8
20260905051506 86 137 1.0 2.0 0.00 0.00 0.00 60 1015.8
20260905051413 86 136 1.0 2.0 0.00 0.00 0.00 60 1015.8
20260905051305 86 135 1.0 2.0 0.00 0.00 0.00 60 1015.8
20260905051211 86 133 1.0 3.0 0.00 0.00 0.00 60 1015.8
20260905051104 86 129 1.0 3.0 0.00 0.00 0.00 60 1015.8
20260905051004 86 127 1.0 3.0 0.00 0.00 0.00 60 1015.8
20260905050904 86 126 1.0 3.0 0.00 0.00 0.00 60 1015.8
20260905050804 86 126 1.0 3.0 0.00 0.00 0.00 60 1015.8
20260905050704 86 126 1.0 3.0 0.00 0.00 0.00 60 1015.8
20260905050604 86 124 1.0 3.0 0.00 0.00 0.00 60 1015.8
20260905050504 86 122 1.0 3.0 0.00 0.00 0.00 60 1015.8
20260905050404 86 123 1.0 3.0 0.00 0.00 0.00 60 1015.8
20260905050304 86 123 1.0 3.0 0.00 0.00 0.00 59 1015.9
20260905050204 86 123 1.0 3.0 0.00 0.00 0.00 59 1015.9
20260905050104 86 124 1.0 3.0 0.00 0.00 0.00 59 1015.9
20260905050005 86 123 1.0 4.0 0.00 0.00 0.00 60 1015.9
20260905045904 86 123 1.0 4.0 0.00 0.00 0.00 59 1015.9
20260905045804 86 124 1.0 4.0 0.00 0.00 0.00 59 1015.9
20260905045704 86 124 1.0 4.0 0.00 0.00 0.00 59 1016.0
20260905045504 86 126 1.0 4.0 0.00 0.00 0.00 59 1016.0
20260905045404 86 125 1.0 4.0 0.00 0.00 0.00 59 1016.0
20260905045306 86 124 1.0 4.0 0.00 0.00 0.00 59 1016.0
20260905045204 86 123 1.0 4.0 0.00 0.00 0.00 59 1016.0
20260905045104 86 124 1.0 4.0 0.00 0.00 0.00 59 1016.0
20260905045005 86 127 1.0 3.0 0.00 0.00 0.00 59 1016.1
20260905044804 86 127 2.0 5.0 0.00 0.00 0.00 59 1016.1
20260905044704 86 128 2.0 5.0 0.00 0.00 0.00 59 1016.1
20260905044504 86 133 2.0 5.0 0.00 0.00 0.00 59 1016.1
20260905044304 86 137 2.0 5.0 0.00 0.00 0.00 59 1016.1
20260905044204 87 139 2.0 5.0 0.00 0.00 0.00 59 1016.2
20260905044104 87 140 2.0 5.0 0.00 0.00 0.00 59 1016.2
20260905044004 87 137 2.0 5.0 0.00 0.00 0.00 58 1016.2
20260905043904 87 140 1.0 5.0 0.00 0.00 0.00 58 1016.2
20260905043804 87 141 1.0 5.0 0.00 0.00 0.00 58 1016.2
20260905043704 87 143 1.0 5.0 0.00 0.00 0.00 58 1016.2
20260905043605 87 142 1.0 5.0 0.00 0.00 0.00 58 1016.2
20260905043505 87 141 1.0 5.0 0.00 0.00 0.00 58 1016.2
20260905043405 87 137 1.0 4.0 0.00 0.00 0.00 58 1016.2
20260905043305 87 140 1.0 4.0 0.00 0.00 0.00 58 1016.2
20260905043205 87 141 1.0 4.0 0.00 0.00 0.00 58 1016.2
20260905043004 87 141 1.0 4.0 0.00 0.00 0.00 57 1016.3
20260905042804 87 137 1.0 4.0 0.00 0.00 0.00 57 1016.2
20260905042704 87 135 1.0 4.0 0.00 0.00 0.00 57 1016.3
20260905042604 88 137 1.0 5.0 0.00 0.00 0.00 57 1016.2
20260905042504 88 136 2.0 5.0 0.00 0.00 0.00 57 1016.3
20260905042404 88 139 2.0 5.0 0.00 0.00 0.00 57 1016.2
20260905042307 88 135 2.0 5.0 0.00 0.00 0.00 57 1016.2
20260905042204 88 134 2.0 5.0 0.00 0.00 0.00 57 1016.2
20260905042104 88 133 2.0 5.0 0.00 0.00 0.00 56 1016.3
20260905042004 88 133 2.0 5.0 0.00 0.00 0.00 56 1016.2
20260905041905 88 133 2.0 6.0 0.00 0.00 0.00 56 1016.2
20260905041805 88 133 2.0 6.0 0.00 0.00 0.00 56 1016.2
20260905041705 88 133 2.0 6.0 0.00 0.00 0.00 56 1016.2
20260905041605 88 131 2.0 6.0 0.00 0.00 0.00 56 1016.2
20260905041405 88 130 2.0 6.0 0.00 0.00 0.00 56 1016.2
20260905041204 88 130 2.0 6.0 0.00 0.00 0.00 56 1016.1
20260905040904 88 128 2.0 5.0 0.00 0.00 0.00 56 1016.1
20260905040804 88 129 2.0 5.0 0.00 0.00 0.00 56 1016.1
20260905040704 88 129 2.0 5.0 0.00 0.00 0.00 56 1016.1
20260905040604 88 130 2.0 5.0 0.00 0.00 0.00 56 1016.0
20260905040504 88 128 2.0 4.0 0.00 0.00 0.00 56 1016.0
20260905040304 88 127 2.0 4.0 0.00 0.00 0.00 56 1016.0
20260905040205 88 128 2.0 4.0 0.00 0.00 0.00 56 1016.0
20260905040105 88 127 2.0 4.0 0.00 0.00 0.00 56 1016.0
20260905040005 88 126 2.0 4.0 0.00 0.00 0.00 55 1016.0
20260905035804 88 127 2.0 6.0 0.00 0.00 0.00 55 1016.0
20260905035704 88 125 2.0 6.0 0.00 0.00 0.00 55 1016.0
20260905035604 88 123 2.0 6.0 0.00 0.00 0.00 56 1016.0
20260905035504 88 123 2.0 6.0 0.00 0.00 0.00 55 1016.0
20260905035404 88 124 2.0 6.0 0.00 0.00 0.00 55 1016.0
20260905035306 88 123 2.0 6.0 0.00 0.00 0.00 55 1016.0
20260905035204 88 122 2.0 6.0 0.00 0.00 0.00 55 1015.9
20260905035104 88 124 2.0 6.0 0.00 0.00 0.00 55 1016.0
20260905035004 88 124 2.0 6.0 0.00 0.00 0.00 55 1016.0
20260905034904 88 122 2.0 5.0 0.00 0.00 0.00 55 1016.0
20260905034804 88 122 1.0 5.0 0.00 0.00 0.00 55 1016.0
20260905034605 88 123 1.0 4.0 0.00 0.00 0.00 55 1016.0
20260905034505 88 123 1.0 4.0 0.00 0.00 0.00 55 1016.1
20260905034404 88 123 1.0 4.0 0.00 0.00 0.00 55 1016.0
20260905034304 88 124 1.0 4.0 0.00 0.00 0.00 55 1016.1
20260905034104 88 123 1.0 3.0 0.00 0.00 0.00 55 1016.0
20260905034004 88 123 1.0 3.0 0.00 0.00 0.00 55 1016.1
20260905033904 88 124 1.0 5.0 0.00 0.00 0.00 55 1016.1
20260905033804 89 125 1.0 5.0 0.00 0.00 0.00 55 1016.1
20260905033704 89 124 1.0 5.0 0.00 0.00 0.00 55 1016.1
20260905033604 89 124 1.0 5.0 0.00 0.00 0.00 55 1016.2
20260905033504 89 124 1.0 5.0 0.00 0.00 0.00 55 1016.2
20260905033404 89 124 1.0 5.0 0.00 0.00 0.00 55 1016.2
20260905033305 89 124 1.0 5.0 0.00 0.00 0.00 55 1016.2
20260905033204 89 128 2.0 5.0 0.00 0.00 0.00 55 1016.2
20260905033104 89 125 2.0 5.0 0.00 0.00 0.00 55 1016.2
20260905033005 89 130 2.0 7.0 0.00 0.00 0.00 55 1016.3
20260905032905 89 129 2.0 7.0 0.00 0.00 0.00 54 1016.3
20260905032804 89 129 2.0 7.0 0.00 0.00 0.00 55 1016.3
20260905032704 89 129 2.0 7.0 0.00 0.00 0.00 54 1016.3
20260905032604 89 128 2.0 7.0 0.00 0.00 0.00 55 1016.3
20260905032404 89 127 2.0 7.0 0.00 0.00 0.00 54 1016.3
20260905032306 89 127 2.0 7.0 0.00 0.00 0.00 54 1016.3
20260905032204 89 124 2.0 7.0 0.00 0.00 0.00 54 1016.3
20260905032105 89 125 1.0 7.0 0.00 0.00 0.00 54 1016.3
20260905031905 89 121 1.0 4.0 0.00 0.00 0.00 54 1016.2
20260905031504 89 122 1.0 4.0 0.00 0.00 0.00 54 1016.1
20260905031404 89 124 1.0 4.0 0.00 0.00 0.00 54 1016.2
20260905031205 89 124 1.0 4.0 0.00 0.00 0.00 54 1016.1
20260905031005 89 124 1.0 4.0 0.00 0.00 0.00 54 1016.2
20260905030905 89 124 1.0 4.0 0.00 0.00 0.00 54 1016.1
20260905030504 89 124 1.0 4.0 0.00 0.00 0.00 54 1016.1
20260905030104 89 120 1.0 4.0 0.00 0.00 0.00 54 1016.0
20260905030004 89 121 1.0 4.0 0.00 0.00 0.00 54 1016.0
20260905025905 89 121 1.0 4.0 0.00 0.00 0.00 54 1016.0
20260905025705 90 121 1.0 4.0 0.00 0.00 0.00 54 1015.9
20260905025605 89 120 1.0 4.0 0.00 0.00 0.00 54 1015.9
20260905025404 89 122 1.0 4.0 0.00 0.00 0.00 54 1015.8
20260905025306 90 123 1.0 4.0 0.00 0.00 0.00 54 1015.9
20260905025204 90 125 1.0 4.0 0.00 0.00 0.00 54 1015.8
20260905025104 90 125 1.0 4.0 0.00 0.00 0.00 54 1015.8
20260905024804 90 125 1.0 4.0 0.00 0.00 0.00 54 1015.8
20260905024704 90 126 1.0 4.0 0.00 0.00 0.00 54 1015.8
20260905024604 90 128 1.0 4.0 0.00 0.00 0.00 54 1015.7
20260905024504 90 127 1.0 4.0 0.00 0.00 0.00 54 1015.7
20260905024405 90 126 1.0 4.0 0.00 0.00 0.00 54 1015.7
20260905024305 90 125 1.0 4.0 0.00 0.00 0.00 54 1015.7
20260905024205 90 123 1.0 4.0 0.00 0.00 0.00 54 1015.6
20260905024104 90 123 1.0 4.0 0.00 0.00 0.00 54 1015.6
20260905023804 90 121 1.0 5.0 0.00 0.00 0.00 54 1015.6
20260905023704 90 119 1.0 5.0 0.00 0.00 0.00 54 1015.6
20260905023504 90 120 1.0 5.0 0.00 0.00 0.00 53 1015.5
20260905023404 90 119 1.0 5.0 0.00 0.00 0.00 53 1015.5
20260905023304 90 120 1.0 5.0 0.00 0.00 0.00 53 1015.5
20260905023205 90 120 1.0 5.0 0.00 0.00 0.00 53 1015.5
20260905023105 90 120 1.0 5.0 0.00 0.00 0.00 53 1015.5
20260905023005 90 121 1.0 5.0 0.00 0.00 0.00 53 1015.5
20260905022905 90 122 1.0 4.0 0.00 0.00 0.00 53 1015.5
20260905022504 90 121 1.0 4.0 0.00 0.00 0.00 53 1015.3
20260905022404 90 122 1.0 3.0 0.00 0.00 0.00 53 1015.3
20260905022104 90 120 1.0 3.0 0.00 0.00 0.00 53 1015.1
20260905022004 90 119 1.0 3.0 0.00 0.00 0.00 53 1015.1
20260905021904 90 119 1.0 3.0 0.00 0.00 0.00 53 1015.1
20260905021805 90 119 1.0 3.0 0.00 0.00 0.00 53 1015.1
20260905021704 90 119 1.0 3.0 0.00 0.00 0.00 53 1015.0
20260905021604 90 118 1.0 3.0 0.00 0.00 0.00 53 1015.0
20260905021504 90 118 1.0 5.0 0.00 0.00 0.00 53 1015.0
20260905021404 90 119 1.0 5.0 0.00 0.00 0.00 53 1015.0
20260905021205 90 120 1.0 5.0 0.00 0.00 0.00 53 1014.9
20260905021105 90 118 1.0 5.0 0.00 0.00 0.00 53 1015.0
20260905020904 90 119 1.0 5.0 0.00 0.00 0.00 53 1014.9
20260905020804 90 119 1.0 5.0 0.00 0.00 0.00 53 1014.8
20260905020704 90 121 1.0 5.0 0.00 0.00 0.00 53 1014.8
20260905020604 90 121 1.0 5.0 0.00 0.00 0.00 53 1014.8
20260905020404 90 124 0.0 3.0 0.00 0.00 0.00 53 1014.8
20260905020304 90 125 0.0 3.0 0.00 0.00 0.00 53 1014.7
20260905020105 90 133 1.0 2.0 0.00 0.00 0.00 53 1014.8
20260905020005 90 136 1.0 3.0 0.00 0.00 0.00 53 1014.7
20260905015904 90 135 1.0 3.0 0.00 0.00 0.00 53 1014.7
20260905015805 90 135 0.0 3.0 0.00 0.00 0.00 53 1014.6
20260905015705 90 136 0.0 3.0 0.00 0.00 0.00 53 1014.6
20260905015604 90 136 0.0 3.0 0.00 0.00 0.00 53 1014.6
20260905015504 90 136 1.0 3.0 0.00 0.00 0.00 53 1014.6
20260905015404 91 132 1.0 3.0 0.00 0.00 0.00 53 1014.6
20260905015306 91 132 1.0 3.0 0.00 0.00 0.00 53 1014.6
20260905015104 91 130 0.0 3.0 0.00 0.00 0.00 52 1014.5
20260905015004 91 127 0.0 2.0 0.00 0.00 0.00 52 1014.5
20260905014904 91 127 1.0 2.0 0.00 0.00 0.00 52 1014.5
20260905014804 91 127 1.0 2.0 0.00 0.00 0.00 52 1014.5
20260905014704 91 127 1.0 2.0 0.00 0.00 0.00 52 1014.5
20260905014604 91 127 1.0 2.0 0.00 0.00 0.00 52 1014.5
20260905014505 91 127 1.0 2.0 0.00 0.00 0.00 52 1014.5
20260905014405 91 127 1.0 3.0 0.00 0.00 0.00 52 1014.4
20260905014305 91 127 1.0 3.0 0.00 0.00 0.00 52 1014.5
20260905014204 91 126 1.0 3.0 0.00 0.00 0.00 52 1014.4
20260905014104 91 125 1.0 3.0 0.00 0.00 0.00 52 1014.4
20260905014004 91 125 1.0 3.0 0.00 0.00 0.00 52 1014.4
20260905013904 91 123 1.0 3.0 0.00 0.00 0.00 52 1014.4
20260905013804 91 120 1.0 3.0 0.00 0.00 0.00 52 1014.4
20260905013704 91 126 1.0 4.0 0.00 0.00 0.00 52 1014.4
20260905013604 91 126 1.0 4.0 0.00 0.00 0.00 52 1014.3
20260905013504 91 126 1.0 4.0 0.00 0.00 0.00 52 1014.4
20260905013404 91 125 1.0 4.0 0.00 0.00 0.00 51 1014.4
20260905013304 91 125 1.0 4.0 0.00 0.00 0.00 51 1014.3
20260905013204 91 125 1.0 4.0 0.00 0.00 0.00 51 1014.3
20260905013104 91 125 1.0 4.0 0.00 0.00 0.00 51 1014.3
20260905013004 91 126 1.0 4.0 0.00 0.00 0.00 51 1014.3
20260905012804 92 131 1.0 4.0 0.00 0.00 0.00 51 1014.4
20260905012704 92 124 1.0 2.0 0.00 0.00 0.00 51 1014.4
20260905012604 92 121 1.0 2.0 0.00 0.00 0.00 51 1014.4
20260905012504 92 121 1.0 2.0 0.00 0.00 0.00 51 1014.4
20260905012404 92 121 1.0 2.0 0.00 0.00 0.00 51 1014.4
20260905012306 92 121 0.0 2.0 0.00 0.00 0.00 51 1014.4
20260905012204 92 122 0.0 2.0 0.00 0.00 0.00 51 1014.4
20260905012104 92 121 0.0 2.0 0.00 0.00 0.00 51 1014.4
20260905012004 92 118 0.0 2.0 0.00 0.00 0.00 51 1014.3
20260905011905 92 116 0.0 2.0 0.00 0.00 0.00 51 1014.3
20260905011804 92 115 0.0 2.0 0.00 0.00 0.00 50 1014.3
20260905011604 92 115 1.0 2.0 0.00 0.00 0.00 51 1014.3
20260905011404 92 120 1.0 3.0 0.00 0.00 0.00 50 1014.3
20260905011304 92 119 1.0 3.0 0.00 0.00 0.00 50 1014.3
20260905011204 92 119 1.0 3.0 0.00 0.00 0.00 50 1014.3
20260905011104 92 119 1.0 3.0 0.00 0.00 0.00 50 1014.3
20260905011005 92 119 1.0 3.0 0.00 0.00 0.00 50 1014.3
20260905010904 92 119 1.0 3.0 0.00 0.00 0.00 50 1014.2
20260905010704 92 119 0.0 3.0 0.00 0.00 0.00 50 1014.3
20260905010604 92 120 0.0 3.0 0.00 0.00 0.00 50 1014.2
20260905010504 92 114 0.0 2.0 0.00 0.00 0.00 49 1014.2
20260905010404 92 117 0.0 2.0 0.00 0.00 0.00 49 1014.3
20260905010304 92 119 0.0 2.0 0.00 0.00 0.00 49 1014.3
20260905010104 93 121 1.0 2.0 0.00 0.00 0.00 49 1014.2
20260905010004 93 122 1.0 2.0 0.00 0.00 0.00 49 1014.2
20260905005904 93 124 1.0 2.0 0.00 0.00 0.00 49 1014.2
20260905005804 93 125 1.0 2.0 0.00 0.00 0.00 49 1014.2
20260905005404 93 125 1.0 3.0 0.00 0.00 0.00 48 1014.2
20260905005105 93 123 1.0 3.0 0.00 0.00 0.00 48 1014.1
20260905004904 93 122 1.0 4.0 0.00 0.00 0.00 48 1014.1
20260905004704 94 121 1.0 6.0 0.00 0.00 0.00 48 1014.1
20260905004606 94 120 1.0 6.0 0.00 0.00 0.00 48 1014.1
20260905004504 94 119 1.0 6.0 0.00 0.00 0.00 47 1014.1
20260905004404 94 118 1.0 6.0 0.00 0.00 0.00 47 1014.1
20260905004304 94 119 2.0 6.0 0.00 0.00 0.00 47 1014.1
20260905004204 94 119 2.0 6.0 0.00 0.00 0.00 47 1014.1
20260905004104 94 119 2.0 6.0 0.00 0.00 0.00 47 1014.1
20260905004004 94 119 2.0 6.0 0.00 0.00 0.00 47 1014.1
20260905003904 94 119 1.0 6.0 0.00 0.00 0.00 47 1014.1
20260905003804 94 119 1.0 4.0 0.00 0.00 0.00 47 1014.1
20260905003704 94 119 2.0 4.0 0.00 0.00 0.00 47 1014.1
20260905003504 94 120 2.0 4.0 0.00 0.00 0.00 47 1014.1
20260905003405 94 122 2.0 4.0 0.00 0.00 0.00 47 1014.1
20260905003305 94 125 2.0 4.0 0.00 0.00 0.00 47 1014.1
20260905003204 94 125 2.0 5.0 0.00 0.00 0.00 47 1014.1
20260905003004 94 124 2.0 5.0 0.00 0.00 0.00 47 1014.2
20260905002904 94 125 2.0 5.0 0.00 0.00 0.00 47 1014.2
20260905002804 94 125 2.0 5.0 0.00 0.00 0.00 46 1014.2
20260905002704 94 124 2.0 5.0 0.00 0.00 0.00 46 1014.2
20260905002604 94 124 2.0 5.0 0.00 0.00 0.00 46 1014.2
20260905002504 94 123 2.0 5.0 0.00 0.00 0.00 46 1014.2
20260905002404 94 123 2.0 5.0 0.00 0.00 0.00 46 1014.1
20260905002204 94 121 2.0 5.0 0.00 0.00 0.00 46 1014.1
20260905002105 95 122 2.0 6.0 0.00 0.00 0.00 46 1014.1
20260905002004 95 123 2.0 6.0 0.00 0.00 0.00 46 1014.1
20260905001804 95 124 2.0 6.0 0.00 0.00 0.00 46 1014.2
20260905001704 95 124 2.0 6.0 0.00 0.00 0.00 46 1014.1
20260905001504 95 126 2.0 6.0 0.00 0.00 0.00 46 1014.1
20260905001404 95 123 2.0 6.0 0.00 0.00 0.00 46 1014.2
20260905001304 95 127 2.0 6.0 0.00 0.00 0.00 46 1014.1
20260905001204 95 127 2.0 6.0 0.00 0.00 0.00 46 1014.1
20260905001104 95 125 2.0 6.0 0.00 0.00 0.00 46 1014.1
20260905001004 95 125 2.0 6.0 0.00 0.00 0.00 46 1014.1
20260905000904 95 124 2.0 6.0 0.00 0.00 0.00 46 1014.1
20260905000804 95 125 2.0 6.0 0.00 0.00 0.00 46 1014.1
20260905000704 95 125 2.0 6.0 0.00 0.00 0.00 46 1014.1
20260905000504 95 124 2.0 6.0 0.00 0.00 0.00 45 1014.1
20260905000404 96 132 2.0 9.0 0.00 0.00 0.00 45 1014.1
20260905000304 96 133 2.0 9.0 0.00 0.00 0.00 45 1014.1
20260905000204 96 132 2.0 9.0 0.00 0.00 0.00 45 1014.2
20260905000104 96 133 2.0 9.0 0.00 0.00 0.00 45 1014.1
20260905000005 96 136 2.0 9.0 0.00 0.00 0.00 45 1014.1
20260904235804 96 136 2.0 9.0 0.00 0.00 0.00 45 1014.1
20260904235604 96 139 2.0 9.0 0.00 0.00 0.00 45 1014.1
20260904235504 96 142 2.0 9.0 0.00 0.00 0.00 45 1014.0
20260904235404 96 137 2.0 7.0 0.00 0.00 0.00 46 1014.1
20260904235306 96 140 2.0 7.0 0.00 0.00 0.00 46 1014.2
20260904235204 96 139 2.0 7.0 0.00 0.00 0.00 46 1014.1
20260904235104 96 138 2.0 7.0 0.00 0.00 0.00 45 1014.1
20260904235004 96 136 2.0 7.0 0.00 0.00 0.00 45 1014.1
20260904234904 96 135 2.0 7.0 0.00 0.00 0.00 45 1014.1
20260904234804 96 135 2.0 7.0 0.00 0.00 0.00 45 1014.1
20260904234704 96 133 1.0 7.0 0.00 0.00 0.00 45 1014.1
20260904234604 96 132 1.0 7.0 0.00 0.00 0.00 45 1014.1
20260904234504 97 130 1.0 7.0 0.00 0.00 0.00 45 1014.1
20260904234304 96 131 2.0 6.0 0.00 0.00 0.00 45 1014.1
20260904234204 96 132 2.0 6.0 0.00 0.00 0.00 46 1014.1
20260904234104 96 132 2.0 6.0 0.00 0.00 0.00 46 1014.1
20260904234005 96 131 2.0 6.0 0.00 0.00 0.00 46 1014.1
20260904233904 96 130 2.0 6.0 0.00 0.00 0.00 45 1014.1
20260904233804 96 130 2.0 6.0 0.00 0.00 0.00 46 1014.1
20260904233704 96 128 3.0 6.0 0.00 0.00 0.00 45 1014.0
20260904233604 96 128 3.0 6.0 0.00 0.00 0.00 46 1014.1
20260904233504 96 129 3.0 6.0 0.00 0.00 0.00 45 1014.0
20260904233405 96 124 3.0 6.0 0.00 0.00 0.00 46 1014.1
20260904233305 96 125 3.0 6.0 0.00 0.00 0.00 45 1014.0
20260904233004 97 125 3.0 6.0 0.00 0.00 0.00 45 1014.1
20260904232904 97 126 3.0 6.0 0.00 0.00 0.00 45 1014.1
20260904232804 97 125 2.0 6.0 0.00 0.00 0.00 45 1014.0
20260904232704 97 124 2.0 5.0 0.00 0.00 0.00 45 1014.0
20260904232604 97 121 2.0 10.0 0.00 0.00 0.00 45 1014.0
20260904232306 97 118 2.0 10.0 0.00 0.00 0.00 45 1014.0
20260904232204 97 117 2.0 10.0 0.00 0.00 0.00 45 1014.0
20260904232104 97 115 2.0 10.0 0.00 0.00 0.00 45 1014.1
20260904232004 97 116 3.0 10.0 0.00 0.00 0.00 45 1014.0
20260904231905 97 121 3.0 10.0 0.00 0.00 0.00 45 1014.0
20260904231805 97 123 3.0 10.0 0.00 0.00 0.00 45 1014.1
20260904231704 97 123 3.0 10.0 0.00 0.00 0.00 45 1014.0
20260904231504 97 138 3.0 10.0 0.00 0.00 0.00 45 1014.0
20260904231404 97 138 3.0 10.0 0.00 0.00 0.00 45 1014.0
20260904231304 97 140 3.0 10.0 0.00 0.00 0.00 45 1014.1
20260904231204 97 140 3.0 10.0 0.00 0.00 0.00 45 1014.0
20260904231104 97 140 3.0 10.0 0.00 0.00 0.00 45 1014.0
20260904231004 97 141 3.0 10.0 0.00 0.00 0.00 44 1014.0
20260904230904 97 135 3.0 10.0 0.00 0.00 0.00 44 1014.0
20260904230804 97 137 3.0 10.0 0.00 0.00 0.00 44 1014.0
20260904230704 97 139 3.0 10.0 0.00 0.00 0.00 44 1014.0
20260904230604 97 127 3.0 9.0 0.00 0.00 0.00 44 1014.0
20260904230504 97 129 3.0 9.0 0.00 0.00 0.00 44 1014.0
20260904230304 98 131 3.0 8.0 0.00 0.00 0.00 44 1014.0
20260904230204 97 134 3.0 8.0 0.00 0.00 0.00 44 1014.0
20260904230104 97 142 3.0 8.0 0.00 0.00 0.00 44 1014.1
20260904230004 98 150 3.0 8.0 0.00 0.00 0.00 44 1014.1
20260904225904 98 151 3.0 8.0 0.00 0.00 0.00 44 1014.1
20260904225804 98 151 3.0 8.0 0.00 0.00 0.00 44 1014.1
20260904225704 98 150 3.0 8.0 0.00 0.00 0.00 44 1014.1
20260904225604 98 156 3.0 8.0 0.00 0.00 0.00 45 1014.1
20260904225504 98 162 3.0 10.0 0.00 0.00 0.00 44 1014.1
20260904225404 98 166 3.0 10.0 0.00 0.00 0.00 44 1014.0
20260904225306 98 166 3.0 10.0 0.00 0.00 0.00 44 1014.1
20260904225204 98 169 3.0 10.0 0.00 0.00 0.00 44 1014.1
20260904225004 98 174 4.0 12.0 0.00 0.00 0.00 44 1014.1
20260904224904 98 176 4.0 12.0 0.00 0.00 0.00 44 1014.1
20260904224804 98 181 4.0 12.0 0.00 0.00 0.00 44 1014.1
20260904224704 98 179 3.0 12.0 0.00 0.00 0.00 44 1014.1
20260904224604 98 179 3.0 12.0 0.00 0.00 0.00 44 1014.1
20260904224504 98 178 3.0 12.0 0.00 0.00 0.00 44 1014.1
20260904224404 98 177 3.0 12.0 0.00 0.00 0.00 44 1014.1
20260904224304 98 170 3.0 12.0 0.00 0.00 0.00 44 1014.1
20260904224204 98 169 3.0 12.0 0.00 0.00 0.00 44 1014.1
20260904224104 98 162 3.0 12.0 0.00 0.00 0.00 44 1014.1
20260904223904 98 141 3.0 6.0 0.00 0.00 0.00 44 1014.1
20260904223804 98 137 3.0 6.0 0.00 0.00 0.00 44 1014.1
20260904223704 98 140 3.0 6.0 0.00 0.00 0.00 44 1014.0
20260904223604 98 151 4.0 9.0 0.00 0.00 0.00 44 1014.1
20260904223504 98 149 4.0 10.0 0.00 0.00 0.00 44 1014.1
20260904223404 98 149 3.0 10.0 0.00 0.00 0.00 43 1014.1
20260904223304 98 152 3.0 10.0 0.00 0.00 0.00 44 1014.1
20260904223204 98 152 3.0 10.0 0.00 0.00 0.00 44 1014.1
20260904223104 98 152 3.0 10.0 0.00 0.00 0.00 43 1014.0
20260904223004 98 153 3.0 10.0 0.00 0.00 0.00 43 1014.0
20260904222904 98 156 3.0 10.0 0.00 0.00 0.00 43 1014.0
20260904222805 98 152 3.0 10.0 0.00 0.00 0.00 43 1014.0
20260904222704 98 158 2.0 10.0 0.00 0.00 0.00 43 1014.0
20260904222605 99 147 2.0 10.0 0.00 0.00 0.00 44 1014.0
20260904222505 98 142 2.0 7.0 0.00 0.00 0.00 44 1014.0
20260904222405 98 138 2.0 7.0 0.00 0.00 0.00 45 1014.1
20260904222306 98 136 2.0 7.0 0.00 0.00 0.00 44 1014.0
20260904222205 98 133 3.0 7.0 0.00 0.00 0.00 45 1014.1
20260904222105 98 132 3.0 7.0 0.00 0.00 0.00 44 1014.0
20260904221905 98 131 3.0 9.0 0.00 0.00 0.00 45 1014.0
20260904221805 98 132 3.0 9.0 0.00 0.00 0.00 45 1014.0
20260904221705 98 126 4.0 9.0 0.00 0.00 0.00 45 1014.1
20260904221505 97 125 4.0 9.0 0.00 0.00 0.00 44 1014.1
20260904221304 98 129 4.0 9.0 0.00 0.00 0.00 44 1014.1
20260904221204 98 129 3.0 9.0 0.00 0.00 0.00 44 1014.1
20260904221104 98 133 3.0 9.0 0.00 0.00 0.00 44 1014.1
20260904220904 98 129 3.0 10.0 0.00 0.00 0.00 44 1014.1
20260904220804 99 132 3.0 10.0 0.00 0.00 0.00 43 1014.1
20260904220704 99 138 3.0 10.0 0.00 0.00 0.00 43 1014.2
20260904220604 99 145 3.0 10.0 0.00 0.00 0.00 44 1014.2
20260904220504 99 148 3.0 10.0 0.00 0.00 0.00 44 1014.1
20260904220404 99 146 3.0 10.0 0.00 0.00 0.00 44 1014.1
20260904220304 99 144 3.0 10.0 0.00 0.00 0.00 44 1014.0
20260904220204 98 144 4.0 10.0 0.00 0.00 0.00 44 1014.0
20260904220104 98 146 4.0 10.0 0.00 0.00 0.00 44 1014.0
20260904220004 98 160 4.0 8.0 0.00 0.00 0.00 44 1014.2
20260904215904 98 163 4.0 8.0 0.00 0.00 0.00 44 1014.1
20260904215804 98 161 4.0 8.0 0.00 0.00 0.00 44 1014.1
20260904215704 98 155 4.0 8.0 0.00 0.00 0.00 44 1014.1
20260904215604 98 147 4.0 8.0 0.00 0.00 0.00 44 1014.2
20260904215504 98 145 4.0 8.0 0.00 0.00 0.00 43 1014.1
20260904215404 98 150 4.0 8.0 0.00 0.00 0.00 43 1014.2
20260904215104 98 147 3.0 8.0 0.00 0.00 0.00 44 1014.2
20260904215004 98 143 3.0 8.0 0.00 0.00 0.00 43 1014.1
20260904214905 98 139 3.0 8.0 0.00 0.00 0.00 43 1014.2
20260904214705 99 138 3.0 8.0 0.00 0.00 0.00 43 1014.2
20260904214505 99 140 3.0 8.0 0.00 0.00 0.00 43 1014.2
20260904214405 98 134 3.0 8.0 0.00 0.00 0.00 43 1014.2
20260904214305 98 130 3.0 8.0 0.00 0.00 0.00 43 1014.2
20260904214004 98 121 3.0 8.0 0.00 0.00 0.00 44 1014.1
20260904213904 98 123 3.0 8.0 0.00 0.00 0.00 44 1014.2
20260904213804 98 125 3.0 8.0 0.00 0.00 0.00 43 1014.1
20260904213704 98 127 3.0 8.0 0.00 0.00 0.00 44 1014.2
20260904213604 98 127 3.0 8.0 0.00 0.00 0.00 43 1014.2
20260904213504 98 127 3.0 8.0 0.00 0.00 0.00 43 1014.1
20260904213404 98 127 3.0 8.0 0.00 0.00 0.00 44 1014.1
20260904213304 98 128 3.0 8.0 0.00 0.00 0.00 45 1014.2
20260904213204 98 129 3.0 8.0 0.00 0.00 0.00 44 1014.1
20260904213104 98 132 4.0 10.0 0.00 0.00 0.00 44 1014.1
20260904213004 98 135 4.0 10.0 0.00 0.00 0.00 45 1014.2
20260904212904 98 136 4.0 10.0 0.00 0.00 0.00 44 1014.1
20260904212804 98 135 4.0 10.0 0.00 0.00 0.00 45 1014.2
20260904212704 98 136 4.0 10.0 0.00 0.00 0.00 45 1014.2
20260904212604 98 141 4.0 10.0 0.00 0.00 0.00 45 1014.2
20260904212504 98 143 4.0 10.0 0.00 0.00 0.00 44 1014.2
20260904212404 98 143 4.0 10.0 0.00 0.00 0.00 45 1014.2
20260904212306 98 144 4.0 10.0 0.00 0.00 0.00 45 1014.2
20260904212105 98 147 4.0 9.0 0.00 0.00 0.00 44 1014.3
20260904212005 98 154 4.0 9.0 0.00 0.00 0.00 45 1014.2
20260904211905 98 164 4.0 9.0 0.00 0.00 0.00 45 1014.3
20260904211805 98 169 4.0 9.0 0.00 0.00 0.00 45 1014.3
20260904211705 98 166 4.0 9.0 0.00 0.00 0.00 44 1014.4
20260904211605 98 165 4.0 9.0 0.00 0.00 0.00 45 1014.3
20260904211505 98 163 4.0 9.0 0.00 0.00 0.00 44 1014.3
20260904211405 97 163 5.0 9.0 0.00 0.00 0.00 45 1014.3
20260904211305 97 160 5.0 9.0 0.00 0.00 0.00 44 1014.3
20260904211004 98 143 4.0 8.0 0.00 0.00 0.00 44 1014.4
20260904210804 98 127 4.0 8.0 0.00 0.00 0.00 44 1014.4
20260904210704 98 127 4.0 8.0 0.00 0.00 0.00 44 1014.4
20260904210604 98 123 4.0 8.0 0.00 0.00 0.00 44 1014.5
20260904210505 98 123 4.0 8.0 0.00 0.00 0.00 44 1014.5
20260904210405 98 123 4.0 8.0 0.00 0.00 0.00 44 1014.6
20260904210305 98 129 4.0 10.0 0.00 0.00 0.00 43 1014.5
20260904210205 98 132 4.0 10.0 0.00 0.00 0.00 44 1014.5
20260904210105 98 136 4.0 10.0 0.00 0.00 0.00 43 1014.5
20260904210005 98 143 4.0 10.0 0.00 0.00 0.00 43 1014.5
20260904205905 98 154 4.0 10.0 0.00 0.00 0.00 44 1014.6
20260904205805 98 165 4.0 10.0 0.00 0.00 0.00 44 1014.6
20260904205605 98 168 5.0 10.0 0.00 0.00 0.00 44 1014.6
20260904205505 98 172 4.0 10.0 0.00 0.00 0.00 44 1014.6
20260904205405 98 177 4.0 10.0 0.00 0.00 0.00 44 1014.7
20260904205306 98 173 4.0 9.0 0.00 0.00 0.00 45 1014.7
20260904205205 98 172 4.0 9.0 0.00 0.00 0.00 45 1014.6
20260904205105 98 175 4.0 9.0 0.00 0.00 0.00 44 1014.6
20260904205005 98 175 4.0 10.0 0.00 0.00 0.00 44 1014.7
20260904204905 98 173 4.0 10.0 0.00 0.00 0.00 43 1014.8
20260904204804 98 162 3.0 10.0 0.00 0.00 0.00 44 1014.7
20260904204704 98 163 3.0 10.0 0.00 0.00 0.00 45 1014.8
20260904204604 98 167 3.0 10.0 0.00 0.00 0.00 45 1014.8
20260904204504 98 164 3.0 10.0 0.00 0.00 0.00 45 1014.8
20260904204404 98 162 3.0 10.0 0.00 0.00 0.00 44 1014.6
20260904204304 98 163 3.0 10.0 0.00 0.00 0.00 45 1014.7
20260904204204 98 163 3.0 10.0 0.00 0.00 0.00 45 1014.8
20260904204104 98 160 3.0 10.0 0.00 0.00 0.00 44 1014.8
20260904203704 98 156 3.0 8.0 0.00 0.00 0.00 44 1014.8
20260904203604 98 165 3.0 10.0 0.00 0.00 0.00 44 1014.8
20260904203504 98 172 4.0 11.0 0.00 0.00 0.00 44 1014.8
20260904203304 97 181 4.0 11.0 0.00 0.00 0.00 45 1014.8
20260904203204 97 183 4.0 11.0 0.00 0.00 0.00 45 1014.8
20260904203104 97 183 4.0 11.0 0.00 0.00 0.00 45 1014.8
20260904203004 97 185 4.0 11.0 0.00 0.00 0.00 45 1014.8
20260904202904 97 187 5.0 11.0 0.00 0.00 0.00 46 1014.8
20260904202805 97 183 5.0 11.0 0.00 0.00 0.00 45 1014.8
20260904202704 97 177 4.0 11.0 0.00 0.00 0.00 44 1014.8
20260904202604 97 168 4.0 11.0 0.00 0.00 0.00 44 1014.8
20260904202504 98 161 4.0 11.0 0.00 0.00 0.00 44 1014.8
20260904202405 98 152 4.0 11.0 0.00 0.00 0.00 44 1014.8
20260904202306 97 146 4.0 8.0 0.00 0.00 0.00 44 1014.8
20260904202105 97 139 4.0 9.0 0.00 0.00 0.00 45 1014.8
20260904202005 97 132 4.0 9.0 0.00 0.00 0.00 45 1014.8
20260904201905 97 126 4.0 9.0 0.00 0.00 0.00 44 1014.8
20260904201805 97 129 4.0 9.0 0.00 0.00 0.00 44 1014.8
20260904201705 97 135 4.0 9.0 0.00 0.00 0.00 45 1014.9
20260904201605 97 144 4.0 11.0 0.00 0.00 0.00 45 1014.9
20260904201304 98 157 4.0 11.0 0.00 0.00 0.00 44 1014.9
20260904201204 98 165 4.0 11.0 0.00 0.00 0.00 44 1014.9
20260904201104 98 169 4.0 11.0 0.00 0.00 0.00 44 1014.9
20260904201004 98 169 4.0 11.0 0.00 0.00 0.00 45 1014.9
20260904200904 98 164 4.0 11.0 0.00 0.00 0.00 45 1014.9
20260904200804 98 158 4.0 11.0 0.00 0.00 0.00 45 1014.9
20260904200704 98 154 4.0 11.0 0.00 0.00 0.00 45 1014.9
20260904200604 97 144 4.0 9.0 0.00 0.00 0.00 44 1014.9
20260904200504 97 142 4.0 9.0 0.00 0.00 0.00 45 1014.9
20260904200404 97 138 3.0 9.0 0.00 0.00 0.00 46 1014.9
20260904200104 97 124 4.0 9.0 0.00 0.00 0.00 45 1014.9
20260904195904 97 125 3.0 8.0 0.00 0.00 0.00 44 1014.9
20260904195604 97 127 3.0 8.0 0.00 0.00 0.00 44 1014.9
20260904195504 97 127 3.0 8.0 0.00 0.00 0.00 45 1015.0
20260904195405 97 127 3.0 8.0 0.00 0.00 0.00 45 1015.0
20260904195306 97 127 3.0 8.0 0.00 0.00 0.00 45 1015.1
20260904195205 97 127 3.0 8.0 0.00 0.00 0.00 45 1015.0
20260904195105 97 128 3.0 8.0 0.00 0.00 0.00 45 1015.1
20260904195004 97 130 3.0 8.0 0.00 0.00 0.00 45 1015.1
20260904194905 97 130 3.0 8.0 0.00 0.00 0.00 45 1015.1
20260904194805 97 130 3.0 8.0 0.00 0.00 0.00 45 1015.2
20260904194705 97 131 3.0 8.0 0.00 0.00 0.00 46 1015.2
20260904194604 97 125 3.0 8.0 0.00 0.00 0.00 45 1015.2
20260904194505 97 124 3.0 8.0 0.00 0.00 0.00 46 1015.2
20260904194405 97 123 3.0 8.0 0.00 0.00 0.00 46 1015.2
20260904194205 97 129 3.0 8.0 0.00 0.00 0.00 46 1015.2
20260904194104 97 136 3.0 11.0 0.00 0.00 0.00 46 1015.2
20260904194004 97 141 3.0 11.0 0.00 0.00 0.00 46 1015.2
20260904193904 97 141 3.0 11.0 0.00 0.00 0.00 46 1015.1
20260904193804 97 153 3.0 11.0 0.00 0.00 0.00 47 1015.1
20260904193704 97 160 3.0 11.0 0.00 0.00 0.00 46 1015.2
20260904193604 97 169 4.0 11.0 0.00 0.00 0.00 47 1015.2
20260904193404 97 177 4.0 11.0 0.00 0.00 0.00 47 1015.2
20260904193304 96 175 4.0 11.0 0.00 0.00 0.00 47 1015.2
20260904193005 96 154 4.0 9.0 0.00 0.00 0.00 47 1015.3
20260904192905 96 157 4.0 9.0 0.00 0.00 0.00 47 1015.3
20260904192805 96 152 4.0 9.0 0.00 0.00 0.00 47 1015.3
20260904192504 96 132 4.0 7.0 0.00 0.00 0.00 47 1015.3
20260904192404 96 131 4.0 7.0 0.00 0.00 0.00 47 1015.3
20260904192204 96 143 4.0 10.0 0.00 0.00 0.00 46 1015.3
20260904192104 96 149 4.0 10.0 0.00 0.00 0.00 47 1015.3
20260904192004 96 153 4.0 10.0 0.00 0.00 0.00 48 1015.4
20260904191904 96 154 5.0 10.0 0.00 0.00 0.00 47 1015.4
20260904191804 96 162 5.0 11.0 0.00 0.00 0.00 47 1015.4
20260904191704 96 168 5.0 11.0 0.00 0.00 0.00 48 1015.3
20260904191604 96 173 5.0 11.0 0.00 0.00 0.00 48 1015.4
20260904191504 96 175 4.0 11.0 0.00 0.00 0.00 48 1015.3
20260904191304 96 182 4.0 11.0 0.00 0.00 0.00 48 1015.3
20260904191204 96 177 4.0 11.0 0.00 0.00 0.00 48 1015.3
20260904191104 96 174 4.0 11.0 0.00 0.00 0.00 47 1015.4
20260904191004 96 179 4.0 11.0 0.00 0.00 0.00 46 1015.3
20260904190804 96 175 4.0 11.0 0.00 0.00 0.00 47 1015.4
20260904190704 96 172 4.0 11.0 0.00 0.00 0.00 47 1015.4
20260904190604 96 166 4.0 11.0 0.00 0.00 0.00 47 1015.4
20260904190505 96 162 4.0 11.0 0.00 0.00 0.00 47 1015.4
20260904190405 96 161 4.0 11.0 0.00 0.00 0.00 47 1015.4
20260904190305 96 154 4.0 11.0 0.00 0.00 0.00 48 1015.5
20260904190205 96 152 4.0 11.0 0.00 0.00 0.00 47 1015.5
20260904190105 96 156 4.0 11.0 0.00 0.00 0.00 47 1015.4
20260904190004 96 147 4.0 10.0 0.00 0.00 0.00 48 1015.5
20260904185905 96 143 3.0 9.0 0.00 0.00 0.00 48 1015.4
20260904185705 96 130 4.0 7.0 0.00 0.00 0.00 48 1015.5
20260904185605 96 135 4.0 7.0 0.00 0.00 0.00 49 1015.5
20260904185505 96 134 4.0 7.0 0.00 0.00 0.00 48 1015.5
20260904185306 96 142 4.0 9.0 0.00 0.00 0.00 49 1015.6
20260904185205 95 149 4.0 10.0 0.00 0.00 0.00 49 1015.6
20260904185004 95 149 4.0 11.0 0.00 0.00 0.00 49 1015.5
20260904184904 95 153 5.0 12.0 0.00 0.00 0.00 48 1015.5
20260904184804 95 163 5.0 12.0 0.00 0.00 0.00 49 1015.6
20260904184704 95 171 5.0 12.0 0.00 0.00 0.00 49 1015.6
20260904184604 95 173 5.0 12.0 0.00 0.00 0.00 50 1015.6
20260904184504 95 177 5.0 12.0 0.00 0.00 0.00 50 1015.5
20260904184005 95 175 5.0 16.0 0.00 0.00 0.00 50 1015.7
20260904183905 95 170 5.0 16.0 0.00 0.00 0.00 49 1015.6
20260904183805 95 162 4.0 16.0 0.00 0.00 0.00 50 1015.6
20260904183604 95 150 4.0 16.0 0.00 0.00 0.00 49 1015.6
20260904183504 95 147 4.0 16.0 0.00 0.00 0.00 49 1015.6
20260904183404 95 145 4.0 16.0 0.00 0.00 0.00 49 1015.6
20260904183204 95 142 4.0 11.0 0.00 0.00 0.00 49 1015.7
20260904182904 96 143 3.0 11.0 0.00 0.00 0.00 49 1015.7
20260904182804 96 145 3.0 11.0 0.00 0.00 0.00 50 1015.7
20260904182704 96 144 3.0 11.0 0.00 0.00 0.00 50 1015.8
20260904182604 96 143 3.0 8.0 0.00 0.00 0.00 50 1015.7
20260904182504 95 141 3.0 8.0 0.00 0.00 0.00 51 1015.7
20260904182404 95 146 3.0 8.0 0.00 0.00 0.00 51 1015.8
20260904182306 95 142 3.0 9.0 0.00 0.00 0.00 52 1015.7
20260904182104 94 147 3.0 9.0 0.00 0.00 0.00 51 1015.7
20260904181904 94 139 3.0 9.0 0.00 0.00 0.00 51 1015.8
20260904181804 94 137 3.0 9.0 0.00 0.00 0.00 51 1015.8
20260904181704 94 138 3.0 9.0 0.00 0.00 0.00 51 1015.8
20260904181504 94 140 4.0 9.0 0.00 0.00 0.00 52 1015.8
20260904181405 94 145 4.0 11.0 0.00 0.00 0.00 53 1015.9
20260904181304 94 141 4.0 11.0 0.00 0.00 0.00 52 1015.9
20260904181204 94 142 4.0 11.0 0.00 0.00 0.00 52 1015.9
20260904181104 94 142 4.0 11.0 0.00 0.00 0.00 52 1015.9
20260904181004 94 143 4.0 11.0 0.00 0.00 0.00 51 1015.9
20260904180904 94 143 4.0 11.0 0.00 0.00 0.00 51 1016.0
20260904180704 94 146 4.0 11.0 0.00 0.00 0.00 53 1016.0
20260904180604 93 144 4.0 11.0 0.00 0.00 0.00 53 1016.0
20260904180504 93 144 4.0 11.0 0.00 0.00 0.00 53 1016.0
20260904180404 93 144 4.0 9.0 0.00 0.00 0.00 53 1016.0
20260904180304 93 155 4.0 9.0 0.00 0.00 0.00 54 1016.0
20260904180204 93 163 5.0 10.0 0.00 0.00 0.00 54 1016.1
20260904180104 93 166 5.0 11.0 0.00 0.00 0.00 53 1016.0
20260904180004 93 171 5.0 11.0 0.00 0.00 0.00 53 1016.1
20260904175904 93 177 5.0 11.0 0.00 0.00 0.00 54 1016.1
20260904175804 93 175 5.0 11.0 0.00 0.00 0.00 53 1016.0
20260904175704 93 176 5.0 11.0 0.00 0.00 0.00 54 1016.1
20260904175604 93 181 5.0 11.0 0.00 0.00 0.00 54 1016.1
20260904175504 93 178 4.0 11.0 0.00 0.00 0.00 53 1016.1
20260904175404 93 173 4.0 11.0 0.00 0.00 0.00 53 1016.2
20260904175305 93 166 4.0 11.0 0.00 0.00 0.00 52 1016.2
20260904175204 93 154 3.0 11.0 0.00 0.00 0.00 53 1016.1
20260904175104 94 145 3.0 10.0 0.00 0.00 0.00 53 1016.1
20260904175004 93 143 3.0 9.0 0.00 0.00 0.00 53 1016.2
20260904174904 93 147 3.0 9.0 0.00 0.00 0.00 53 1016.2
20260904174804 93 156 4.0 9.0 0.00 0.00 0.00 53 1016.2
20260904174704 93 159 4.0 9.0 0.00 0.00 0.00 53 1016.1
20260904174604 93 157 4.0 9.0 0.00 0.00 0.00 53 1016.2
20260904174404 93 155 4.0 9.0 0.00 0.00 0.00 54 1016.2
20260904174304 93 155 4.0 9.0 0.00 0.00 0.00 54 1016.2
20260904174204 93 156 4.0 9.0 0.00 0.00 0.00 54 1016.2
20260904174104 93 152 4.0 9.0 0.00 0.00 0.00 54 1016.2
20260904174004 93 149 3.0 9.0 0.00 0.00 0.00 54 1016.2
20260904173904 93 143 3.0 9.0 0.00 0.00 0.00 54 1016.2
20260904173804 93 140 3.0 7.0 0.00 0.00 0.00 53 1016.3
20260904173704 93 140 3.0 6.0 0.00 0.00 0.00 53 1016.3
20260904173604 93 145 3.0 6.0 0.00 0.00 0.00 53 1016.3
20260904173504 93 148 3.0 9.0 0.00 0.00 0.00 54 1016.3
20260904173404 93 153 3.0 9.0 0.00 0.00 0.00 54 1016.3
20260904173304 93 156 3.0 10.0 0.00 0.00 0.00 55 1016.3
20260904173204 93 155 3.0 10.0 0.00 0.00 0.00 55 1016.3
20260904173104 93 158 3.0 10.0 0.00 0.00 0.00 55 1016.3
20260904173004 92 161 4.0 10.0 0.00 0.00 0.00 55 1016.4
20260904172904 92 162 4.0 10.0 0.00 0.00 0.00 55 1016.4
20260904172604 92 157 4.0 10.0 0.00 0.00 0.00 55 1016.4
20260904172504 92 155 4.0 10.0 0.00 0.00 0.00 55 1016.5
20260904172404 92 152 3.0 10.0 0.00 0.00 0.00 55 1016.5
20260904172305 92 148 3.0 9.0 0.00 0.00 0.00 55 1016.4
20260904172204 92 152 3.0 9.0 0.00 0.00 0.00 55 1016.5
20260904172104 92 153 3.0 9.0 0.00 0.00 0.00 55 1016.5
20260904172004 92 150 3.0 9.0 0.00 0.00 0.00 55 1016.5
20260904171904 92 144 3.0 9.0 0.00 0.00 0.00 54 1016.5
20260904171804 92 145 3.0 9.0 0.00 0.00 0.00 55 1016.5
20260904171704 92 154 3.0 9.0 0.00 0.00 0.00 55 1016.5
20260904171604 92 154 4.0 10.0 0.00 0.00 0.00 56 1016.5
20260904171404 92 164 4.0 14.0 0.00 0.00 0.00 57 1016.5
20260904171304 91 164 4.0 14.0 0.00 0.00 0.00 57 1016.5
20260904171204 91 165 4.0 14.0 0.00 0.00 0.00 58 1016.4
20260904171104 91 168 5.0 14.0 0.00 0.00 0.00 57 1016.5
20260904170804 90 177 5.0 14.0 0.00 0.00 0.00 58 1016.5
20260904170704 90 177 5.0 14.0 0.00 0.00 0.00 57 1016.5
20260904170604 91 175 5.0 14.0 0.00 0.00 0.00 57 1016.5
20260904170504 90 169 5.0 11.0 0.00 0.00 0.00 58 1016.5
20260904170404 90 166 5.0 11.0 0.00 0.00 0.00 58 1016.5
20260904170304 90 166 5.0 11.0 0.00 0.00 0.00 57 1016.5
20260904170204 90 163 4.0 11.0 0.00 0.00 0.00 57 1016.6
20260904170104 91 160 4.0 11.0 0.00 0.00 0.00 56 1016.5
20260904170004 91 160 4.0 11.0 0.00 0.00 0.00 58 1016.6
20260904165904 91 164 4.0 12.0 0.00 0.00 0.00 57 1016.6
20260904165804 91 165 4.0 12.0 0.00 0.00 0.00 57 1016.7
20260904165704 91 163 4.0 12.0 0.00 0.00 0.00 57 1016.6
20260904165504 91 170 4.0 12.0 0.00 0.00 0.00 58 1016.7
20260904165305 90 185 4.0 12.0 0.00 0.00 0.00 58 1016.7
20260904165104 90 187 4.0 12.0 0.00 0.00 0.00 57 1016.6